Wetterdaten: Donnerstag, 09.11.2023
Datum Zeit Temp. Aussen Temp. o. S. Temp +5cm Feuchte Auss Luftdruck Regen Sonnenschein Regendauer Solar Windben Empfang
09.11.2023 00:00 9,6 C 8,9 C 5,6 C 97 % 1005,9 hPa 0,0 l/m 0 min 2 min 0 W/m 16,1 km/h (3 Bft) 95,74 %
09.11.2023 00:02 9,6 C 8,9 C 5,6 C 97 % 1005,9 hPa 0,0 l/m 0 min 2 min 0 W/m 9,7 km/h (2 Bft) 14,29 %
09.11.2023 00:04 9,6 C 8,9 C 5,6 C 97 % 1005,9 hPa 0,2 l/m 0 min 2 min 0 W/m 9,7 km/h (2 Bft) 59,09 %
09.11.2023 00:07 9,6 C 8,9 C 5,6 C 97 % 1005,9 hPa 0,2 l/m 0 min 3 min 0 W/m 19,3 km/h (3 Bft) 93,90 %
09.11.2023 00:10 9,6 C 8,9 C 5,6 C 97 % 1005,8 hPa 0,2 l/m 0 min 3 min 0 W/m 6,4 km/h (2 Bft) 96,55 %
09.11.2023 00:12 9,6 C 8,9 C 5,6 C 97 % 1005,8 hPa 0,0 l/m 0 min 2 min 0 W/m 12,9 km/h (3 Bft) 87,23 %
09.11.2023 00:16 9,6 C 8,9 C 5,6 C 97 % 1005,7 hPa 0,2 l/m 0 min 4 min 0 W/m 12,9 km/h (3 Bft) 95,74 %
09.11.2023 00:18 9,6 C 8,9 C 5,6 C 97 % 1005,7 hPa 0,2 l/m 0 min 2 min 0 W/m 12,9 km/h (3 Bft) 97,87 %
09.11.2023 00:20 9,6 C 8,9 C 5,6 C 97 % 1005,6 hPa 0,0 l/m 0 min 2 min 0 W/m 16,1 km/h (3 Bft) 97,83 %
09.11.2023 00:22 9,6 C 8,9 C 5,6 C 97 % 1005,6 hPa 0,0 l/m 0 min 2 min 0 W/m 25,7 km/h (4 Bft) 93,62 %
09.11.2023 00:24 9,6 C 8,9 C 5,6 C 97 % 1005,6 hPa 0,2 l/m 0 min 2 min 0 W/m 6,4 km/h (2 Bft) 97,87 %
09.11.2023 00:26 9,6 C 8,9 C 5,6 C 97 % 1005,6 hPa 0,0 l/m 0 min 2 min 0 W/m 9,7 km/h (2 Bft) 97,87 %
09.11.2023 00:28 9,6 C 8,9 C 5,6 C 97 % 1005,5 hPa 0,0 l/m 0 min 0 min 0 W/m 9,7 km/h (2 Bft) 95,74 %
09.11.2023 00:30 9,6 C 8,9 C 5,6 C 97 % 1005,5 hPa 0,0 l/m 0 min 0 min 0 W/m 12,9 km/h (3 Bft) 93,62 %
09.11.2023 00:32 9,6 C 8,9 C 5,6 C 97 % 1005,5 hPa 0,0 l/m 0 min 0 min 0 W/m 12,9 km/h (3 Bft) 93,62 %
09.11.2023 00:34 9,6 C 8,9 C 5,6 C 97 % 1005,5 hPa 0,0 l/m 0 min 0 min 0 W/m 12,9 km/h (3 Bft) 97,83 %
09.11.2023 00:36 9,6 C 8,9 C 5,6 C 97 % 1005,5 hPa 0,0 l/m 0 min 0 min 0 W/m 12,9 km/h (3 Bft) 97,87 %
09.11.2023 00:38 9,6 C 8,9 C 5,6 C 97 % 1005,4 hPa 0,0 l/m 0 min 0 min 0 W/m 16,1 km/h (3 Bft) 97,87 %
09.11.2023 00:40 9,6 C 8,9 C 5,6 C 97 % 1005,4 hPa 0,0 l/m 0 min 0 min 0 W/m 22,5 km/h (4 Bft) 97,87 %
09.11.2023 00:42 9,6 C 8,9 C 5,6 C 97 % 1005,4 hPa 0,0 l/m 0 min 0 min 0 W/m 16,1 km/h (3 Bft) 95,74 %
09.11.2023 00:44 9,6 C 8,9 C 5,6 C 97 % 1005,4 hPa 0,0 l/m 0 min 0 min 0 W/m 12,9 km/h (3 Bft) 97,87 %
09.11.2023 00:46 9,6 C 8,9 C 5,6 C 97 % 1005,4 hPa 0,0 l/m 0 min 0 min 0 W/m 6,4 km/h (2 Bft) 95,74 %
09.11.2023 00:48 9,6 C 8,9 C 5,6 C 97 % 1005,3 hPa 0,0 l/m 0 min 0 min 0 W/m 6,4 km/h (2 Bft) 95,65 %
09.11.2023 00:50 9,6 C 8,9 C 5,6 C 97 % 1005,3 hPa 0,0 l/m 0 min 0 min 0 W/m 6,4 km/h (2 Bft) 93,62 %
09.11.2023 00:52 9,6 C 8,9 C 5,6 C 97 % 1005,2 hPa 0,0 l/m 0 min 0 min 0 W/m 16,1 km/h (3 Bft) 93,62 %
09.11.2023 00:54 9,6 C 8,9 C 5,6 C 97 % 1005,2 hPa 0,0 l/m 0 min 0 min 0 W/m 16,1 km/h (3 Bft) 96,43 %
09.11.2023 00:56 9,6 C 8,9 C 5,6 C 97 % 1005,2 hPa 0,0 l/m 0 min 0 min 0 W/m 6,4 km/h (2 Bft) 97,87 %
09.11.2023 00:58 9,6 C 8,9 C 5,6 C 97 % 1005,2 hPa 0,0 l/m 0 min 0 min 0 W/m 6,4 km/h (2 Bft) 97,87 %
09.11.2023 01:00 9,6 C 8,9 C 5,6 C 97 % 1005,2 hPa 0,0 l/m 0 min 0 min 0 W/m 6,4 km/h (2 Bft) 97,87 %
09.11.2023 01:02 9,6 C 8,9 C 5,6 C 97 % 1005,2 hPa 0,0 l/m 0 min 0 min 0 W/m 12,9 km/h (3 Bft) 97,87 %
09.11.2023 01:04 9,6 C 8,9 C 5,6 C 97 % 1005,1 hPa 0,0 l/m 0 min 2 min 0 W/m 6,4 km/h (2 Bft) 97,62 %
09.11.2023 01:06 9,6 C 8,9 C 5,6 C 97 % 1005,1 hPa 0,0 l/m 0 min 2 min 0 W/m 16,1 km/h (3 Bft) 97,87 %
09.11.2023 01:08 9,6 C 8,9 C 5,6 C 97 % 1005,1 hPa 0,0 l/m 0 min 2 min 0 W/m 6,4 km/h (2 Bft) 97,87 %
09.11.2023 01:10 9,6 C 8,9 C 5,6 C 97 % 1005,1 hPa 0,0 l/m 0 min 2 min 0 W/m 6,4 km/h (2 Bft) 97,87 %
09.11.2023 01:12 9,6 C 8,9 C 5,6 C 97 % 1005,0 hPa 0,2 l/m 0 min 2 min 0 W/m 6,4 km/h (2 Bft) 100,00 %
09.11.2023 01:14 9,6 C 8,9 C 5,6 C 97 % 1005,0 hPa 0,0 l/m 0 min 2 min 0 W/m 19,3 km/h (3 Bft) 100,00 %
09.11.2023 01:16 9,6 C 8,9 C 5,6 C 97 % 1005,0 hPa 0,2 l/m 0 min 2 min 0 W/m 9,7 km/h (2 Bft) 100,00 %
09.11.2023 01:18 9,6 C 8,9 C 5,6 C 97 % 1005,0 hPa 0,0 l/m 0 min 2 min 0 W/m 12,9 km/h (3 Bft) 100,00 %
09.11.2023 01:20 9,6 C 8,9 C 5,6 C 97 % 1004,9 hPa 0,2 l/m 0 min 2 min 0 W/m 12,9 km/h (3 Bft) 100,00 %
09.11.2023 01:22 9,6 C 8,9 C 5,6 C 97 % 1005,0 hPa 0,0 l/m 0 min 2 min 0 W/m 19,3 km/h (3 Bft) 100,00 %
09.11.2023 01:24 9,6 C 8,3 C 5,6 C 97 % 1004,9 hPa 0,2 l/m 0 min 2 min 0 W/m 9,7 km/h (2 Bft) 97,87 %
09.11.2023 01:26 9,6 C 8,3 C 5,6 C 97 % 1004,9 hPa 0,0 l/m 0 min 2 min 0 W/m 6,4 km/h (2 Bft) 100,00 %
09.11.2023 01:28 9,6 C 8,3 C 5,6 C 97 % 1004,8 hPa 0,2 l/m 0 min 2 min 0 W/m 9,7 km/h (2 Bft) 100,00 %
09.11.2023 01:30 9,6 C 8,3 C 5,6 C 97 % 1004,8 hPa 0,2 l/m 0 min 2 min 0 W/m 6,4 km/h (2 Bft) 97,87 %
09.11.2023 01:32 9,6 C 8,3 C 5,6 C 97 % 1004,7 hPa 0,0 l/m 0 min 2 min 0 W/m 6,4 km/h (2 Bft) 97,87 %
09.11.2023 01:34 9,6 C 8,3 C 5,6 C 97 % 1004,7 hPa 0,2 l/m 0 min 2 min 0 W/m 6,4 km/h (2 Bft) 97,87 %
09.11.2023 01:36 9,6 C 8,3 C 5,6 C 97 % 1004,7 hPa 0,0 l/m 0 min 2 min 0 W/m 6,4 km/h (2 Bft) 97,87 %
09.11.2023 01:38 9,6 C 8,3 C 5,6 C 97 % 1004,6 hPa 0,2 l/m 0 min 2 min 0 W/m 12,9 km/h (3 Bft) 97,87 %
09.11.2023 01:40 9,6 C 8,3 C 5,6 C 97 % 1004,6 hPa 0,0 l/m 0 min 2 min 0 W/m 12,9 km/h (3 Bft) 97,87 %
09.11.2023 01:42 9,6 C 8,3 C 5,6 C 97 % 1004,6 hPa 0,2 l/m 0 min 2 min 0 W/m 12,9 km/h (3 Bft) 97,83 %
09.11.2023 01:44 9,6 C 8,3 C 5,6 C 97 % 1004,6 hPa 0,0 l/m 0 min 2 min 0 W/m 16,1 km/h (3 Bft) 97,87 %
09.11.2023 01:46 9,6 C 8,3 C 5,6 C 97 % 1004,6 hPa 0,0 l/m 0 min 2 min 0 W/m 12,9 km/h (3 Bft) 97,87 %
09.11.2023 01:48 9,6 C 8,3 C 5,6 C 97 % 1004,6 hPa 0,0 l/m 0 min 0 min 0 W/m 6,4 km/h (2 Bft) 97,87 %
09.11.2023 01:50 9,6 C 8,3 C 5,6 C 97 % 1004,5 hPa 0,0 l/m 0 min 2 min 0 W/m 6,4 km/h (2 Bft) 97,87 %
09.11.2023 01:52 9,6 C 8,3 C 5,6 C 97 % 1004,4 hPa 0,0 l/m 0 min 0 min 0 W/m 6,4 km/h (2 Bft) 97,87 %
09.11.2023 01:54 9,6 C 8,3 C 5,6 C 97 % 1004,4 hPa 0,0 l/m 0 min 0 min 0 W/m 3,2 km/h (1 Bft) 97,87 %
09.11.2023 01:56 9,5 C 8,3 C 5,6 C 97 % 1004,4 hPa 0,0 l/m 0 min 2 min 0 W/m 6,4 km/h (2 Bft) 97,50 %
09.11.2023 01:58 9,5 C 8,3 C 5,6 C 97 % 1004,3 hPa 0,0 l/m 0 min 2 min 0 W/m 6,4 km/h (2 Bft) 96,55 %
09.11.2023 02:04 9,5 C 8,3 C 5,6 C 97 % 1004,2 hPa 0,0 l/m 0 min 5 min 0 W/m 6,4 km/h (2 Bft) 92,86 %
09.11.2023 02:06 9,5 C 8,3 C 5,6 C 97 % 1004,2 hPa 0,0 l/m 0 min 2 min 0 W/m 6,4 km/h (2 Bft) 100,00 %
09.11.2023 02:08 9,5 C 8,3 C 5,6 C 97 % 1004,2 hPa 0,0 l/m 0 min 2 min 0 W/m 6,4 km/h (2 Bft) 94,29 %
09.11.2023 02:10 9,5 C 8,3 C 5,6 C 97 % 1004,1 hPa 0,0 l/m 0 min 2 min 0 W/m 12,9 km/h (3 Bft) 95,24 %
09.11.2023 02:14 9,5 C 8,3 C 5,6 C 97 % 1004,1 hPa 0,0 l/m 0 min 4 min 0 W/m 6,4 km/h (2 Bft) 100,00 %
09.11.2023 02:19 9,5 C 8,3 C 5,6 C 97 % 1004,1 hPa 0,0 l/m 0 min 5 min 0 W/m 9,7 km/h (2 Bft) 95,45 %
09.11.2023 02:20 9,5 C 8,3 C 5,6 C 97 % 1004,1 hPa 0,0 l/m 0 min 1 min 0 W/m 6,4 km/h (2 Bft) 100,00 %
09.11.2023 02:22 9,5 C 8,3 C 5,6 C 97 % 1004,0 hPa 0,0 l/m 0 min 0 min 0 W/m 6,4 km/h (2 Bft) 97,83 %
09.11.2023 02:24 9,5 C 8,3 C 5,6 C 97 % 1004,0 hPa 0,0 l/m 0 min 0 min 0 W/m 6,4 km/h (2 Bft) 100,00 %
09.11.2023 02:26 9,5 C 8,3 C 5,6 C 97 % 1004,0 hPa 0,0 l/m 0 min 0 min 0 W/m 6,4 km/h (2 Bft) 100,00 %
09.11.2023 02:28 9,5 C 8,3 C 5,6 C 97 % 1003,9 hPa 0,2 l/m 0 min 0 min 0 W/m 16,1 km/h (3 Bft) 100,00 %
09.11.2023 02:30 9,5 C 8,3 C 5,6 C 97 % 1003,9 hPa 0,0 l/m 0 min 0 min 0 W/m 6,4 km/h (2 Bft) 100,00 %
09.11.2023 02:32 9,4 C 8,3 C 5,6 C 97 % 1003,9 hPa 0,0 l/m 0 min 0 min 0 W/m 6,4 km/h (2 Bft) 100,00 %
09.11.2023 02:34 9,4 C 8,9 C 5,6 C 97 % 1003,8 hPa 0,0 l/m 0 min 0 min 0 W/m 6,4 km/h (2 Bft) 100,00 %
09.11.2023 02:36 9,4 C 8,3 C 5,6 C 97 % 1003,8 hPa 0,0 l/m 0 min 0 min 0 W/m 6,4 km/h (2 Bft) 100,00 %
09.11.2023 02:38 9,4 C 8,9 C 5,6 C 97 % 1003,8 hPa 0,0 l/m 0 min 0 min 0 W/m 6,4 km/h (2 Bft) 97,87 %
09.11.2023 02:40 9,4 C 8,9 C 5,6 C 97 % 1003,8 hPa 0,0 l/m 0 min 0 min 0 W/m 12,9 km/h (3 Bft) 93,62 %
09.11.2023 02:42 9,4 C 8,9 C 5,6 C 97 % 1003,8 hPa 0,0 l/m 0 min 2 min 0 W/m 12,9 km/h (3 Bft) 93,62 %
09.11.2023 02:44 9,4 C 8,9 C 5,6 C 97 % 1003,7 hPa 0,0 l/m 0 min 2 min 0 W/m 12,9 km/h (3 Bft) 97,87 %
09.11.2023 02:46 9,5 C 8,9 C 5,6 C 97 % 1003,7 hPa 0,0 l/m 0 min 0 min 0 W/m 6,4 km/h (2 Bft) 95,65 %
09.11.2023 02:48 9,4 C 8,9 C 5,6 C 97 % 1003,7 hPa 0,0 l/m 0 min 0 min 0 W/m 3,2 km/h (1 Bft) 97,87 %
09.11.2023 02:50 9,5 C 8,9 C 5,6 C 97 % 1003,7 hPa 0,0 l/m 0 min 0 min 0 W/m 6,4 km/h (2 Bft) 91,49 %
09.11.2023 02:52 9,5 C 8,9 C 5,6 C 97 % 1003,7 hPa 0,0 l/m 0 min 0 min 0 W/m 19,3 km/h (3 Bft) 97,87 %
09.11.2023 02:54 9,5 C 8,9 C 5,6 C 97 % 1003,6 hPa 0,0 l/m 0 min 0 min 0 W/m 12,9 km/h (3 Bft) 97,87 %
09.11.2023 02:56 9,5 C 8,9 C 5,6 C 97 % 1003,6 hPa 0,0 l/m 0 min 0 min 0 W/m 9,7 km/h (2 Bft) 95,65 %
09.11.2023 02:58 9,5 C 8,9 C 5,6 C 97 % 1003,5 hPa 0,0 l/m 0 min 0 min 0 W/m 12,9 km/h (3 Bft) 95,74 %
09.11.2023 03:00 9,5 C 8,9 C 5,6 C 97 % 1003,5 hPa 0,0 l/m 0 min 0 min 0 W/m 12,9 km/h (3 Bft) 95,74 %
09.11.2023 03:02 9,5 C 8,9 C 5,6 C 97 % 1003,5 hPa 0,0 l/m 0 min 0 min 0 W/m 12,9 km/h (3 Bft) 93,62 %
09.11.2023 03:04 9,6 C 8,9 C 5,6 C 97 % 1003,5 hPa 0,0 l/m 0 min 0 min 0 W/m 12,9 km/h (3 Bft) 95,45 %
09.11.2023 03:06 9,6 C 8,9 C 5,6 C 98 % 1003,4 hPa 0,0 l/m 0 min 0 min 0 W/m 12,9 km/h (3 Bft) 93,62 %
09.11.2023 03:08 9,6 C 8,9 C 5,6 C 98 % 1003,3 hPa 0,0 l/m 0 min 0 min 0 W/m 12,9 km/h (3 Bft) 95,74 %
09.11.2023 03:10 9,6 C 8,9 C 5,6 C 98 % 1003,3 hPa 0,0 l/m 0 min 0 min 0 W/m 6,4 km/h (2 Bft) 93,48 %
09.11.2023 03:12 9,6 C 8,9 C 5,6 C 98 % 1003,3 hPa 0,0 l/m 0 min 0 min 0 W/m 9,7 km/h (2 Bft) 96,23 %
09.11.2023 03:14 9,6 C 8,9 C 5,6 C 98 % 1003,3 hPa 0,0 l/m 0 min 0 min 0 W/m 16,1 km/h (3 Bft) 95,74 %
09.11.2023 03:16 9,6 C 8,9 C 5,6 C 98 % 1003,3 hPa 0,0 l/m 0 min 0 min 0 W/m 3,2 km/h (1 Bft) 95,74 %
09.11.2023 03:18 9,6 C 8,9 C 5,6 C 98 % 1003,3 hPa 0,0 l/m 0 min 0 min 0 W/m 6,4 km/h (2 Bft) 91,49 %
09.11.2023 03:20 9,6 C 8,9 C 5,6 C 98 % 1003,2 hPa 0,0 l/m 0 min 0 min 0 W/m 9,7 km/h (2 Bft) 93,62 %
09.11.2023 03:22 9,6 C 8,9 C 5,6 C 98 % 1003,2 hPa 0,0 l/m 0 min 0 min 0 W/m 12,9 km/h (3 Bft) 95,74 %
09.11.2023 03:24 9,6 C 8,9 C 5,6 C 98 % 1003,2 hPa 0,0 l/m 0 min 0 min 0 W/m 9,7 km/h (2 Bft) 95,65 %
09.11.2023 03:26 9,6 C 8,9 C 5,6 C 98 % 1003,2 hPa 0,0 l/m 0 min 0 min 0 W/m 9,7 km/h (2 Bft) 95,74 %
09.11.2023 03:28 9,6 C 8,9 C 5,6 C 98 % 1003,1 hPa 0,0 l/m 0 min 0 min 0 W/m 9,7 km/h (2 Bft) 91,49 %
09.11.2023 03:30 9,6 C 8,9 C 5,6 C 98 % 1003,1 hPa 0,0 l/m 0 min 0 min 0 W/m 19,3 km/h (3 Bft) 95,74 %
09.11.2023 03:32 9,6 C 9,4 C 5,6 C 98 % 1003,1 hPa 0,0 l/m 0 min 0 min 0 W/m 12,9 km/h (3 Bft) 91,49 %
09.11.2023 03:34 9,7 C 9,4 C 5,6 C 98 % 1003,1 hPa 0,0 l/m 0 min 0 min 0 W/m 12,9 km/h (3 Bft) 93,62 %
09.11.2023 03:36 9,7 C 9,4 C 5,6 C 97 % 1003,1 hPa 0,0 l/m 0 min 0 min 0 W/m 9,7 km/h (2 Bft) 93,48 %
09.11.2023 03:38 9,7 C 9,4 C 5,6 C 97 % 1003,1 hPa 0,0 l/m 0 min 0 min 0 W/m 16,1 km/h (3 Bft) 97,87 %
09.11.2023 03:40 9,7 C 9,4 C 5,6 C 97 % 1003,0 hPa 0,0 l/m 0 min 0 min 0 W/m 12,9 km/h (3 Bft) 93,62 %
09.11.2023 03:42 9,7 C 9,4 C 5,6 C 97 % 1003,0 hPa 0,0 l/m 0 min 0 min 0 W/m 16,1 km/h (3 Bft) 95,74 %
09.11.2023 03:44 9,7 C 9,4 C 5,6 C 97 % 1003,0 hPa 0,0 l/m 0 min 0 min 0 W/m 6,4 km/h (2 Bft) 97,87 %
09.11.2023 03:46 9,7 C 9,4 C 5,6 C 97 % 1002,9 hPa 0,0 l/m 0 min 0 min 0 W/m 6,4 km/h (2 Bft) 97,87 %
09.11.2023 03:48 9,8 C 9,4 C 5,6 C 97 % 1002,9 hPa 0,0 l/m 0 min 0 min 0 W/m 12,9 km/h (3 Bft) 97,87 %
09.11.2023 03:50 9,8 C 9,4 C 5,6 C 97 % 1002,8 hPa 0,0 l/m 0 min 0 min 0 W/m 19,3 km/h (3 Bft) 97,83 %
09.11.2023 03:52 9,8 C 9,4 C 5,6 C 97 % 1002,8 hPa 0,0 l/m 0 min 0 min 0 W/m 16,1 km/h (3 Bft) 97,87 %
09.11.2023 03:54 9,8 C 9,4 C 5,6 C 97 % 1002,8 hPa 0,0 l/m 0 min 0 min 0 W/m 16,1 km/h (3 Bft) 95,83 %
09.11.2023 03:56 9,9 C 9,4 C 5,6 C 97 % 1002,8 hPa 0,0 l/m 0 min 0 min 0 W/m 12,9 km/h (3 Bft) 97,87 %
09.11.2023 03:58 9,9 C 9,4 C 5,6 C 97 % 1002,7 hPa 0,0 l/m 0 min 0 min 0 W/m 29,0 km/h (5 Bft) 97,30 %
09.11.2023 04:00 9,9 C 9,4 C 5,6 C 97 % 1002,7 hPa 0,0 l/m 0 min 0 min 0 W/m 16,1 km/h (3 Bft) 98,31 %
09.11.2023 04:02 9,9 C 9,4 C 5,6 C 97 % 1002,7 hPa 0,0 l/m 0 min 0 min 0 W/m 19,3 km/h (3 Bft) 97,14 %
09.11.2023 04:04 10,0 C 9,4 C 5,6 C 97 % 1002,6 hPa 0,0 l/m 0 min 0 min 0 W/m 16,1 km/h (3 Bft) 98,25 %
09.11.2023 04:10 10,1 C 9,4 C 5,6 C 96 % 1002,6 hPa 0,0 l/m 0 min 0 min 0 W/m 19,3 km/h (3 Bft) 100,00 %
09.11.2023 04:12 10,1 C 9,4 C 5,6 C 96 % 1002,5 hPa 0,0 l/m 0 min 0 min 0 W/m 19,3 km/h (3 Bft) 100,00 %
09.11.2023 04:14 10,1 C 9,4 C 5,6 C 96 % 1002,6 hPa 0,0 l/m 0 min 0 min 0 W/m 22,5 km/h (4 Bft) 100,00 %
09.11.2023 04:16 10,1 C 9,4 C 5,6 C 96 % 1002,5 hPa 0,0 l/m 0 min 0 min 0 W/m 29,0 km/h (5 Bft) 98,25 %
09.11.2023 04:18 10,1 C 9,4 C 5,6 C 96 % 1002,5 hPa 0,0 l/m 0 min 0 min 0 W/m 12,9 km/h (3 Bft) 100,00 %
09.11.2023 04:20 10,2 C 9,4 C 5,6 C 96 % 1002,5 hPa 0,0 l/m 0 min 0 min 0 W/m 19,3 km/h (3 Bft) 97,87 %
09.11.2023 04:22 10,2 C 9,4 C 5,6 C 96 % 1002,5 hPa 0,0 l/m 0 min 0 min 0 W/m 12,9 km/h (3 Bft) 100,00 %
09.11.2023 04:24 10,2 C 9,4 C 5,6 C 96 % 1002,5 hPa 0,0 l/m 0 min 0 min 0 W/m 19,3 km/h (3 Bft) 100,00 %
09.11.2023 04:26 10,2 C 9,4 C 5,6 C 96 % 1002,5 hPa 0,0 l/m 0 min 0 min 0 W/m 12,9 km/h (3 Bft) 97,87 %
09.11.2023 04:28 10,2 C 9,4 C 5,6 C 96 % 1002,5 hPa 0,0 l/m 0 min 0 min 0 W/m 19,3 km/h (3 Bft) 100,00 %
09.11.2023 04:30 10,2 C 9,4 C 5,6 C 95 % 1002,5 hPa 0,0 l/m 0 min 0 min 0 W/m 32,2 km/h (5 Bft) 100,00 %
09.11.2023 04:32 10,2 C 9,4 C 5,6 C 96 % 1002,4 hPa 0,0 l/m 0 min 0 min 0 W/m 12,9 km/h (3 Bft) 95,74 %
09.11.2023 04:34 10,3 C 9,4 C 6,1 C 95 % 1002,4 hPa 0,0 l/m 0 min 0 min 0 W/m 16,1 km/h (3 Bft) 100,00 %
09.11.2023 04:36 10,3 C 9,4 C 6,1 C 95 % 1002,4 hPa 0,0 l/m 0 min 0 min 0 W/m 12,9 km/h (3 Bft) 100,00 %
09.11.2023 04:38 10,3 C 9,4 C 6,1 C 95 % 1002,4 hPa 0,0 l/m 0 min 0 min 0 W/m 19,3 km/h (3 Bft) 97,87 %
09.11.2023 04:40 10,3 C 9,4 C 5,6 C 95 % 1002,4 hPa 0,0 l/m 0 min 0 min 0 W/m 16,1 km/h (3 Bft) 100,00 %
09.11.2023 04:42 10,3 C 10,0 C 6,1 C 95 % 1002,4 hPa 0,0 l/m 0 min 0 min 0 W/m 22,5 km/h (4 Bft) 97,87 %
09.11.2023 04:44 10,3 C 10,0 C 6,1 C 95 % 1002,4 hPa 0,0 l/m 0 min 0 min 0 W/m 16,1 km/h (3 Bft) 97,83 %
09.11.2023 04:46 10,3 C 9,4 C 6,1 C 95 % 1002,3 hPa 0,0 l/m 0 min 0 min 0 W/m 19,3 km/h (3 Bft) 97,87 %
09.11.2023 04:48 10,3 C 10,0 C 6,1 C 95 % 1002,3 hPa 0,0 l/m 0 min 0 min 0 W/m 25,7 km/h (4 Bft) 100,00 %
09.11.2023 04:50 10,4 C 10,0 C 6,1 C 95 % 1002,4 hPa 0,0 l/m 0 min 0 min 0 W/m 16,1 km/h (3 Bft) 97,87 %
09.11.2023 04:52 10,4 C 10,0 C 6,1 C 94 % 1002,3 hPa 0,0 l/m 0 min 0 min 0 W/m 12,9 km/h (3 Bft) 100,00 %
09.11.2023 04:54 10,4 C 9,4 C 6,1 C 95 % 1002,3 hPa 0,0 l/m 0 min 0 min 0 W/m 22,5 km/h (4 Bft) 100,00 %
09.11.2023 04:56 10,4 C 10,0 C 6,1 C 95 % 1002,3 hPa 0,0 l/m 0 min 0 min 0 W/m 12,9 km/h (3 Bft) 97,87 %
09.11.2023 04:58 10,4 C 10,0 C 6,1 C 94 % 1002,3 hPa 0,0 l/m 0 min 0 min 0 W/m 25,7 km/h (4 Bft) 100,00 %
09.11.2023 05:00 10,4 C 10,0 C 6,1 C 94 % 1002,3 hPa 0,0 l/m 0 min 0 min 0 W/m 16,1 km/h (3 Bft) 100,00 %
09.11.2023 05:02 10,4 C 10,0 C 6,1 C 94 % 1002,3 hPa 0,0 l/m 0 min 0 min 0 W/m 16,1 km/h (3 Bft) 97,87 %
09.11.2023 05:04 10,4 C 10,0 C 6,1 C 94 % 1002,3 hPa 0,0 l/m 0 min 0 min 0 W/m 16,1 km/h (3 Bft) 100,00 %
09.11.2023 05:10 10,4 C 10,0 C 6,1 C 94 % 1002,3 hPa 0,0 l/m 0 min 0 min 0 W/m 32,2 km/h (5 Bft) 98,50 %
09.11.2023 05:12 10,4 C 10,0 C 6,1 C 94 % 1002,3 hPa 0,0 l/m 0 min 0 min 0 W/m 16,1 km/h (3 Bft) 100,00 %
09.11.2023 05:14 10,5 C 10,0 C 6,1 C 94 % 1002,3 hPa 0,0 l/m 0 min 0 min 0 W/m 25,7 km/h (4 Bft) 97,83 %
09.11.2023 05:16 10,5 C 10,0 C 6,1 C 94 % 1002,3 hPa 0,0 l/m 0 min 0 min 0 W/m 12,9 km/h (3 Bft) 100,00 %
09.11.2023 05:18 10,5 C 10,0 C 6,1 C 94 % 1002,2 hPa 0,0 l/m 0 min 0 min 0 W/m 16,1 km/h (3 Bft) 97,87 %
09.11.2023 05:20 10,5 C 10,0 C 6,1 C 94 % 1002,4 hPa 0,0 l/m 0 min 0 min 0 W/m 29,0 km/h (5 Bft) 93,62 %
09.11.2023 05:22 10,5 C 10,0 C 6,1 C 94 % 1002,3 hPa 0,0 l/m 0 min 0 min 0 W/m 25,7 km/h (4 Bft) 97,87 %
09.11.2023 05:24 10,5 C 10,0 C 6,1 C 93 % 1002,3 hPa 0,0 l/m 0 min 0 min 0 W/m 32,2 km/h (5 Bft) 95,74 %
09.11.2023 05:26 10,6 C 10,0 C 6,1 C 93 % 1002,3 hPa 0,0 l/m 0 min 0 min 0 W/m 32,2 km/h (5 Bft) 93,62 %
09.11.2023 05:28 10,6 C 10,0 C 6,1 C 93 % 1002,3 hPa 0,0 l/m 0 min 0 min 0 W/m 29,0 km/h (5 Bft) 95,74 %
09.11.2023 05:30 10,6 C 10,0 C 6,1 C 93 % 1002,3 hPa 0,0 l/m 0 min 0 min 0 W/m 16,1 km/h (3 Bft) 54,35 %
09.11.2023 05:32 10,6 C 10,0 C 6,1 C 93 % 1002,3 hPa 0,0 l/m 0 min 0 min 0 W/m 19,3 km/h (3 Bft) 95,74 %
09.11.2023 05:34 10,6 C 10,0 C 6,1 C 93 % 1002,3 hPa 0,0 l/m 0 min 0 min 0 W/m 19,3 km/h (3 Bft) 95,74 %
09.11.2023 05:36 10,6 C 10,0 C 6,1 C 93 % 1002,3 hPa 0,0 l/m 0 min 0 min 0 W/m 19,3 km/h (3 Bft) 95,74 %
09.11.2023 05:38 10,6 C 10,0 C 6,1 C 93 % 1002,4 hPa 0,0 l/m 0 min 0 min 0 W/m 22,5 km/h (4 Bft) 95,74 %
09.11.2023 05:40 10,6 C 10,0 C 6,1 C 93 % 1002,3 hPa 0,0 l/m 0 min 0 min 0 W/m 19,3 km/h (3 Bft) 95,74 %
09.11.2023 05:42 10,6 C 10,0 C 6,1 C 93 % 1002,3 hPa 0,0 l/m 0 min 0 min 0 W/m 19,3 km/h (3 Bft) 93,62 %
09.11.2023 05:44 10,6 C 10,0 C 6,1 C 93 % 1002,3 hPa 0,0 l/m 0 min 0 min 0 W/m 25,7 km/h (4 Bft) 93,48 %
09.11.2023 05:46 10,6 C 10,0 C 6,1 C 93 % 1002,2 hPa 0,0 l/m 0 min 0 min 0 W/m 29,0 km/h (5 Bft) 91,49 %
09.11.2023 05:48 10,6 C 10,0 C 6,1 C 93 % 1002,2 hPa 0,0 l/m 0 min 0 min 0 W/m 16,1 km/h (3 Bft) 93,62 %
09.11.2023 05:50 10,6 C 10,0 C 6,1 C 93 % 1002,3 hPa 0,0 l/m 0 min 0 min 0 W/m 16,1 km/h (3 Bft) 91,49 %
09.11.2023 05:52 10,6 C 10,0 C 6,1 C 93 % 1002,3 hPa 0,0 l/m 0 min 0 min 0 W/m 29,0 km/h (5 Bft) 93,62 %
09.11.2023 05:54 10,6 C 10,0 C 6,1 C 93 % 1002,3 hPa 0,0 l/m 0 min 0 min 0 W/m 22,5 km/h (4 Bft) 91,67 %
09.11.2023 05:56 10,6 C 10,0 C 6,1 C 93 % 1002,4 hPa 0,0 l/m 0 min 0 min 0 W/m 25,7 km/h (4 Bft) 93,62 %
09.11.2023 05:58 10,6 C 10,0 C 6,1 C 93 % 1002,5 hPa 0,0 l/m 0 min 0 min 0 W/m 25,7 km/h (4 Bft) 97,87 %
09.11.2023 06:00 10,6 C 10,0 C 6,1 C 93 % 1002,4 hPa 0,0 l/m 0 min 0 min 0 W/m 22,5 km/h (4 Bft) 95,74 %
09.11.2023 06:02 10,6 C 9,4 C 6,1 C 93 % 1002,4 hPa 0,0 l/m 0 min 0 min 0 W/m 12,9 km/h (3 Bft) 93,62 %
09.11.2023 06:04 10,6 C 10,0 C 6,1 C 93 % 1002,4 hPa 0,0 l/m 0 min 0 min 0 W/m 32,2 km/h (5 Bft) 96,08 %
09.11.2023 06:08 10,5 C 10,0 C 6,1 C 93 % 1002,3 hPa 0,0 l/m 0 min 0 min 0 W/m 29,0 km/h (5 Bft) 96,70 %
09.11.2023 06:10 10,5 C 10,0 C 6,1 C 93 % 1002,3 hPa 0,0 l/m 0 min 0 min 0 W/m 25,7 km/h (4 Bft) 97,83 %
09.11.2023 06:12 10,5 C 9,4 C 6,1 C 93 % 1002,2 hPa 0,0 l/m 0 min 0 min 0 W/m 22,5 km/h (4 Bft) 97,87 %
09.11.2023 06:16 10,4 C 9,4 C 6,1 C 93 % 1002,2 hPa 0,0 l/m 0 min 0 min 0 W/m 25,7 km/h (4 Bft) 96,81 %
09.11.2023 06:18 10,4 C 9,4 C 6,1 C 93 % 1002,1 hPa 0,0 l/m 0 min 0 min 0 W/m 22,5 km/h (4 Bft) 97,87 %
09.11.2023 06:20 10,4 C 9,4 C 6,1 C 93 % 1002,2 hPa 0,0 l/m 0 min 0 min 0 W/m 19,3 km/h (3 Bft) 97,87 %
09.11.2023 06:22 10,4 C 9,4 C 6,1 C 93 % 1002,1 hPa 0,0 l/m 0 min 0 min 0 W/m 29,0 km/h (5 Bft) 97,87 %
09.11.2023 06:24 10,4 C 9,4 C 6,1 C 93 % 1002,1 hPa 0,0 l/m 0 min 0 min 0 W/m 22,5 km/h (4 Bft) 97,83 %
09.11.2023 06:26 10,4 C 10,0 C 6,1 C 93 % 1002,1 hPa 0,0 l/m 0 min 0 min 0 W/m 12,9 km/h (3 Bft) 97,87 %
09.11.2023 06:28 10,4 C 9,4 C 6,1 C 93 % 1002,1 hPa 0,0 l/m 0 min 0 min 0 W/m 19,3 km/h (3 Bft) 97,87 %
09.11.2023 06:30 10,4 C 9,4 C 6,1 C 93 % 1002,0 hPa 0,0 l/m 0 min 0 min 0 W/m 19,3 km/h (3 Bft) 93,62 %
09.11.2023 06:32 10,4 C 9,4 C 6,1 C 93 % 1002,0 hPa 0,0 l/m 0 min 2 min 0 W/m 22,5 km/h (4 Bft) 97,87 %
09.11.2023 06:34 10,4 C 9,4 C 5,6 C 93 % 1002,1 hPa 0,0 l/m 0 min 2 min 0 W/m 19,3 km/h (3 Bft) 97,87 %
09.11.2023 06:36 10,4 C 9,4 C 5,6 C 93 % 1002,0 hPa 0,0 l/m 0 min 2 min 0 W/m 25,7 km/h (4 Bft) 97,87 %
09.11.2023 06:38 10,4 C 9,4 C 5,6 C 93 % 1002,0 hPa 0,0 l/m 0 min 2 min 0 W/m 32,2 km/h (5 Bft) 100,00 %
09.11.2023 06:40 10,4 C 9,4 C 5,6 C 93 % 1002,0 hPa 0,0 l/m 0 min 2 min 0 W/m 38,6 km/h (5 Bft) 93,62 %
09.11.2023 06:42 10,3 C 9,4 C 5,6 C 93 % 1002,1 hPa 0,0 l/m 0 min 2 min 0 W/m 29,0 km/h (5 Bft) 100,00 %
09.11.2023 06:44 10,3 C 9,4 C 5,6 C 93 % 1002,0 hPa 0,0 l/m 0 min 2 min 0 W/m 22,5 km/h (4 Bft) 100,00 %
09.11.2023 06:46 10,3 C 9,4 C 5,6 C 93 % 1002,1 hPa 0,0 l/m 0 min 2 min 0 W/m 29,0 km/h (5 Bft) 100,00 %
09.11.2023 06:48 10,3 C 9,4 C 5,6 C 93 % 1002,1 hPa 0,0 l/m 0 min 2 min 0 W/m 16,1 km/h (3 Bft) 97,87 %
09.11.2023 06:50 10,3 C 9,4 C 5,6 C 93 % 1002,1 hPa 0,2 l/m 0 min 2 min 0 W/m 19,3 km/h (3 Bft) 100,00 %
09.11.2023 06:52 10,3 C 9,4 C 5,6 C 93 % 1002,1 hPa 0,0 l/m 0 min 2 min 0 W/m 22,5 km/h (4 Bft) 100,00 %
09.11.2023 06:54 10,3 C 9,4 C 5,6 C 93 % 1002,1 hPa 0,0 l/m 0 min 2 min 0 W/m 19,3 km/h (3 Bft) 100,00 %
09.11.2023 06:56 10,2 C 9,4 C 5,6 C 93 % 1002,1 hPa 0,0 l/m 0 min 2 min 0 W/m 22,5 km/h (4 Bft) 97,87 %
09.11.2023 06:58 10,2 C 8,9 C 5,6 C 93 % 1002,2 hPa 0,0 l/m 0 min 2 min 0 W/m 12,9 km/h (3 Bft) 97,87 %
09.11.2023 07:00 10,2 C 8,9 C 5,6 C 93 % 1002,2 hPa 0,0 l/m 0 min 2 min 0 W/m 29,0 km/h (5 Bft) 100,00 %
09.11.2023 07:02 10,1 C 8,9 C 5,6 C 93 % 1002,2 hPa 0,2 l/m 0 min 2 min 0 W/m 25,7 km/h (4 Bft) 97,87 %
09.11.2023 07:04 10,1 C 8,9 C 5,6 C 94 % 1002,2 hPa 0,0 l/m 0 min 2 min 0 W/m 16,1 km/h (3 Bft) 100,00 %
09.11.2023 07:06 10,1 C 8,9 C 5,6 C 94 % 1002,1 hPa 0,0 l/m 0 min 2 min 0 W/m 6,4 km/h (2 Bft) 98,11 %
09.11.2023 07:08 10,1 C 8,9 C 5,6 C 94 % 1002,2 hPa 0,0 l/m 0 min 2 min 0 W/m 16,1 km/h (3 Bft) 95,74 %
09.11.2023 07:10 10,1 C 8,9 C 5,6 C 94 % 1002,1 hPa 0,2 l/m 0 min 2 min 0 W/m 16,1 km/h (3 Bft) 100,00 %
09.11.2023 07:12 10,0 C 8,9 C 5,6 C 94 % 1002,1 hPa 0,0 l/m 0 min 0 min 0 W/m 6,4 km/h (2 Bft) 95,74 %
09.11.2023 07:14 10,0 C 8,9 C 5,6 C 94 % 1002,2 hPa 0,0 l/m 0 min 0 min 0 W/m 12,9 km/h (3 Bft) 97,87 %
09.11.2023 07:16 9,9 C 8,9 C 5,6 C 94 % 1002,2 hPa 0,0 l/m 0 min 2 min 0 W/m 12,9 km/h (3 Bft) 95,74 %
09.11.2023 07:18 9,9 C 8,9 C 5,6 C 94 % 1002,2 hPa 0,0 l/m 0 min 0 min 0 W/m 16,1 km/h (3 Bft) 97,83 %
09.11.2023 07:20 9,9 C 8,9 C 5,6 C 94 % 1002,2 hPa 0,0 l/m 0 min 0 min 0 W/m 16,1 km/h (3 Bft) 97,87 %
09.11.2023 07:22 9,9 C 8,9 C 5,6 C 95 % 1002,2 hPa 0,0 l/m 0 min 2 min 0 W/m 22,5 km/h (4 Bft) 97,87 %
09.11.2023 07:24 9,9 C 8,9 C 5,6 C 95 % 1002,3 hPa 0,0 l/m 0 min 2 min 0 W/m 16,1 km/h (3 Bft) 97,87 %
09.11.2023 07:26 9,8 C 8,9 C 5,6 C 95 % 1002,2 hPa 0,0 l/m 0 min 2 min 0 W/m 19,3 km/h (3 Bft) 95,74 %
09.11.2023 07:28 9,8 C 8,9 C 5,6 C 95 % 1002,2 hPa 0,2 l/m 0 min 2 min 0 W/m 16,1 km/h (3 Bft) 97,87 %
09.11.2023 07:30 9,8 C 8,9 C 5,6 C 95 % 1002,4 hPa 0,0 l/m 0 min 0 min 0 W/m 6,4 km/h (2 Bft) 97,87 %
09.11.2023 07:32 9,8 C 8,9 C 5,6 C 95 % 1002,3 hPa 0,0 l/m 0 min 0 min 0 W/m 32,2 km/h (5 Bft) 95,74 %
09.11.2023 07:34 9,8 C 8,9 C 5,6 C 95 % 1002,4 hPa 0,0 l/m 0 min 0 min 0 W/m 12,9 km/h (3 Bft) 93,48 %
09.11.2023 07:36 9,8 C 8,9 C 5,6 C 95 % 1002,4 hPa 0,0 l/m 0 min 0 min 0 W/m 16,1 km/h (3 Bft) 97,87 %
09.11.2023 07:38 9,8 C 8,9 C 5,6 C 95 % 1002,4 hPa 0,0 l/m 0 min 0 min 0 W/m 22,5 km/h (4 Bft) 97,87 %
09.11.2023 07:40 9,8 C 8,9 C 5,6 C 95 % 1002,4 hPa 0,0 l/m 0 min 0 min 0 W/m 22,5 km/h (4 Bft) 95,74 %
09.11.2023 07:42 9,7 C 8,9 C 5,6 C 95 % 1002,5 hPa 0,0 l/m 0 min 2 min 0 W/m 22,5 km/h (4 Bft) 95,74 %
09.11.2023 07:44 9,7 C 8,9 C 5,6 C 95 % 1002,5 hPa 0,0 l/m 0 min 2 min 0 W/m 9,7 km/h (2 Bft) 95,74 %
09.11.2023 07:46 9,7 C 8,9 C 5,6 C 96 % 1002,5 hPa 0,0 l/m 0 min 0 min 0 W/m 16,1 km/h (3 Bft) 95,65 %
09.11.2023 07:48 9,7 C 8,9 C 5,6 C 96 % 1002,4 hPa 0,0 l/m 0 min 2 min 0 W/m 16,1 km/h (3 Bft) 97,87 %
09.11.2023 07:50 9,7 C 8,9 C 5,6 C 96 % 1002,5 hPa 0,0 l/m 0 min 2 min 0 W/m 19,3 km/h (3 Bft) 97,87 %
09.11.2023 07:52 9,7 C 8,9 C 5,6 C 96 % 1002,5 hPa 0,0 l/m 0 min 2 min 0 W/m 12,9 km/h (3 Bft) 97,87 %
09.11.2023 07:54 9,7 C 8,9 C 5,6 C 96 % 1002,5 hPa 0,0 l/m 0 min 0 min 0 W/m 12,9 km/h (3 Bft) 95,74 %
09.11.2023 07:56 9,7 C 8,9 C 5,6 C 96 % 1002,6 hPa 0,0 l/m 0 min 0 min 0 W/m 12,9 km/h (3 Bft) 97,87 %
09.11.2023 07:58 9,7 C 8,9 C 5,6 C 96 % 1002,6 hPa 0,0 l/m 0 min 2 min 0 W/m 19,3 km/h (3 Bft) 97,87 %
09.11.2023 08:00 9,7 C 8,9 C 5,6 C 96 % 1002,6 hPa 0,0 l/m 0 min 0 min 0 W/m 22,5 km/h (4 Bft) 95,74 %
09.11.2023 08:02 9,7 C 8,9 C 5,6 C 96 % 1002,6 hPa 0,0 l/m 0 min 2 min 0 W/m 19,3 km/h (3 Bft) 97,96 %
09.11.2023 08:04 9,7 C 8,9 C 5,6 C 96 % 1002,6 hPa 0,2 l/m 0 min 2 min 0 W/m 6,4 km/h (2 Bft) 97,56 %
09.11.2023 08:05 9,7 C 8,9 C 5,6 C 96 % 1002,6 hPa 0,2 l/m 0 min 1 min 0 W/m 19,3 km/h (3 Bft) 100,00 %
09.11.2023 08:12 9,7 C 8,9 C 5,6 C 96 % 1002,7 hPa 0,0 l/m 0 min 0 min 0 W/m 12,9 km/h (3 Bft) 100,00 %
09.11.2023 08:18 9,7 C 8,9 C 5,6 C 96 % 1002,8 hPa 0,0 l/m 0 min 0 min 0 W/m 22,5 km/h (4 Bft) 96,77 %
09.11.2023 08:19 9,7 C 8,9 C 5,6 C 96 % 1002,8 hPa 0,0 l/m 0 min 0 min 0 W/m 12,9 km/h (3 Bft) 100,00 %
09.11.2023 08:20 9,7 C 8,9 C 5,6 C 96 % 1002,8 hPa 0,0 l/m 0 min 0 min 0 W/m 22,5 km/h (4 Bft) 100,00 %
09.11.2023 08:24 9,7 C 8,9 C 6,1 C 97 % 1003,0 hPa 0,0 l/m 0 min 4 min 0 W/m 12,9 km/h (3 Bft) 97,83 %
09.11.2023 08:26 9,7 C 8,9 C 6,1 C 97 % 1003,0 hPa 0,0 l/m 0 min 0 min 0 W/m 12,9 km/h (3 Bft) 100,00 %
09.11.2023 08:28 9,7 C 8,9 C 6,1 C 97 % 1002,9 hPa 0,0 l/m 0 min 0 min 5 W/m 9,7 km/h (2 Bft) 100,00 %
09.11.2023 08:30 9,7 C 8,9 C 5,6 C 97 % 1002,9 hPa 0,0 l/m 0 min 2 min 8 W/m 19,3 km/h (3 Bft) 97,87 %
09.11.2023 08:32 9,6 C 8,9 C 5,6 C 97 % 1002,9 hPa 0,0 l/m 0 min 0 min 11 W/m 9,7 km/h (2 Bft) 97,87 %
09.11.2023 08:34 9,6 C 8,9 C 5,6 C 97 % 1002,9 hPa 0,0 l/m 0 min 0 min 12 W/m 16,1 km/h (3 Bft) 100,00 %
09.11.2023 08:36 9,5 C 8,9 C 5,6 C 97 % 1002,9 hPa 0,2 l/m 0 min 0 min 14 W/m 6,4 km/h (2 Bft) 100,00 %
09.11.2023 08:38 9,4 C 8,9 C 5,6 C 97 % 1002,9 hPa 0,0 l/m 0 min 0 min 15 W/m 12,9 km/h (3 Bft) 100,00 %
09.11.2023 08:40 9,4 C 8,9 C 5,6 C 97 % 1002,8 hPa 0,0 l/m 0 min 0 min 18 W/m 9,7 km/h (2 Bft) 100,00 %
09.11.2023 08:42 9,4 C 8,9 C 5,6 C 97 % 1002,9 hPa 0,0 l/m 0 min 0 min 20 W/m 12,9 km/h (3 Bft) 100,00 %
09.11.2023 08:44 9,5 C 8,9 C 5,6 C 97 % 1002,9 hPa 0,0 l/m 0 min 0 min 22 W/m 9,7 km/h (2 Bft) 100,00 %
09.11.2023 08:46 9,5 C 8,9 C 5,6 C 97 % 1003,0 hPa 0,0 l/m 0 min 2 min 27 W/m 6,4 km/h (2 Bft) 100,00 %
09.11.2023 08:48 9,5 C 8,9 C 5,6 C 97 % 1003,0 hPa 0,0 l/m 0 min 2 min 34 W/m 6,4 km/h (2 Bft) 95,65 %
09.11.2023 08:50 9,6 C 8,9 C 6,1 C 97 % 1003,0 hPa 0,0 l/m 0 min 2 min 39 W/m 6,4 km/h (2 Bft) 95,74 %
09.11.2023 08:52 9,6 C 8,9 C 6,1 C 97 % 1002,9 hPa 0,0 l/m 0 min 0 min 42 W/m 9,7 km/h (2 Bft) 95,74 %
09.11.2023 08:54 9,6 C 8,9 C 6,1 C 97 % 1002,9 hPa 0,0 l/m 0 min 2 min 44 W/m 9,7 km/h (2 Bft) 97,87 %
09.11.2023 08:56 9,6 C 8,9 C 6,1 C 97 % 1003,0 hPa 0,0 l/m 0 min 0 min 41 W/m 6,4 km/h (2 Bft) 97,87 %
09.11.2023 08:58 9,6 C 8,9 C 6,1 C 97 % 1003,0 hPa 0,0 l/m 0 min 2 min 40 W/m 22,5 km/h (4 Bft) 95,65 %
09.11.2023 09:00 9,6 C 8,9 C 6,1 C 97 % 1003,0 hPa 0,0 l/m 0 min 0 min 39 W/m 19,3 km/h (3 Bft) 97,87 %
09.11.2023 09:02 9,6 C 8,9 C 5,6 C 97 % 1003,0 hPa 0,0 l/m 0 min 0 min 35 W/m 16,1 km/h (3 Bft) 97,87 %
09.11.2023 09:04 9,5 C 8,9 C 5,6 C 97 % 1003,0 hPa 0,0 l/m 0 min 0 min 34 W/m 12,9 km/h (3 Bft) 97,73 %
09.11.2023 09:06 9,5 C 8,9 C 5,6 C 97 % 1003,0 hPa 0,0 l/m 0 min 0 min 33 W/m 19,3 km/h (3 Bft) 97,87 %
09.11.2023 09:08 9,5 C 8,9 C 5,6 C 97 % 1003,0 hPa 0,0 l/m 0 min 0 min 32 W/m 6,4 km/h (2 Bft) 91,49 %
09.11.2023 09:10 9,5 C 8,9 C 5,6 C 97 % 1003,1 hPa 0,0 l/m 0 min 0 min 29 W/m 12,9 km/h (3 Bft) 95,74 %
09.11.2023 09:12 9,4 C 8,9 C 5,6 C 97 % 1003,1 hPa 0,0 l/m 0 min 0 min 28 W/m 16,1 km/h (3 Bft) 93,62 %
09.11.2023 09:14 9,4 C 8,9 C 5,6 C 97 % 1003,0 hPa 0,0 l/m 0 min 0 min 26 W/m 12,9 km/h (3 Bft) 93,48 %
09.11.2023 09:16 9,4 C 8,9 C 5,6 C 97 % 1003,0 hPa 0,0 l/m 0 min 0 min 27 W/m 12,9 km/h (3 Bft) 95,74 %
09.11.2023 09:18 9,4 C 8,9 C 5,6 C 97 % 1003,0 hPa 0,0 l/m 0 min 0 min 32 W/m 9,7 km/h (2 Bft) 95,74 %
09.11.2023 09:20 9,4 C 8,9 C 5,6 C 97 % 1003,1 hPa 0,0 l/m 0 min 0 min 35 W/m 12,9 km/h (3 Bft) 95,74 %
09.11.2023 09:22 9,4 C 8,9 C 5,6 C 97 % 1003,1 hPa 0,0 l/m 0 min 0 min 34 W/m 6,4 km/h (2 Bft) 95,74 %
09.11.2023 09:24 9,4 C 8,9 C 5,6 C 97 % 1003,0 hPa 0,0 l/m 0 min 0 min 32 W/m 12,9 km/h (3 Bft) 95,74 %
09.11.2023 09:26 9,4 C 8,9 C 5,6 C 97 % 1003,0 hPa 0,0 l/m 0 min 0 min 30 W/m 6,4 km/h (2 Bft) 93,62 %
09.11.2023 09:28 9,4 C 8,9 C 5,6 C 97 % 1003,1 hPa 0,0 l/m 0 min 0 min 30 W/m 9,7 km/h (2 Bft) 93,48 %
09.11.2023 09:30 9,4 C 8,9 C 5,6 C 97 % 1003,0 hPa 0,0 l/m 0 min 0 min 32 W/m 9,7 km/h (2 Bft) 95,74 %
09.11.2023 09:32 9,4 C 8,9 C 5,6 C 97 % 1003,0 hPa 0,0 l/m 0 min 0 min 39 W/m 25,7 km/h (4 Bft) 95,74 %
09.11.2023 09:34 9,4 C 8,9 C 5,6 C 97 % 1003,0 hPa 0,0 l/m 0 min 0 min 48 W/m 19,3 km/h (3 Bft) 95,74 %
09.11.2023 09:36 9,4 C 8,9 C 5,6 C 97 % 1003,0 hPa 0,0 l/m 0 min 0 min 63 W/m 12,9 km/h (3 Bft) 95,74 %
09.11.2023 09:38 9,4 C 8,9 C 5,6 C 97 % 1003,1 hPa 0,0 l/m 0 min 0 min 67 W/m 12,9 km/h (3 Bft) 95,74 %
09.11.2023 09:40 9,4 C 9,4 C 5,6 C 97 % 1003,1 hPa 0,0 l/m 0 min 0 min 67 W/m 16,1 km/h (3 Bft) 97,87 %
09.11.2023 09:42 9,4 C 9,4 C 5,6 C 97 % 1003,1 hPa 0,0 l/m 0 min 0 min 69 W/m 12,9 km/h (3 Bft) 100,00 %
09.11.2023 09:44 9,4 C 9,4 C 5,6 C 97 % 1003,1 hPa 0,0 l/m 0 min 0 min 67 W/m 12,9 km/h (3 Bft) 100,00 %
09.11.2023 09:46 9,4 C 9,4 C 5,6 C 97 % 1003,1 hPa 0,0 l/m 0 min 0 min 64 W/m 16,1 km/h (3 Bft) 100,00 %
09.11.2023 09:48 9,4 C 9,4 C 5,6 C 97 % 1003,1 hPa 0,0 l/m 0 min 0 min 65 W/m 6,4 km/h (2 Bft) 97,87 %
09.11.2023 09:50 9,5 C 9,4 C 5,6 C 96 % 1003,1 hPa 0,0 l/m 0 min 0 min 66 W/m 16,1 km/h (3 Bft) 97,87 %
09.11.2023 09:52 9,5 C 9,4 C 5,6 C 96 % 1003,1 hPa 0,0 l/m 0 min 0 min 68 W/m 16,1 km/h (3 Bft) 100,00 %
09.11.2023 09:54 9,5 C 9,4 C 5,6 C 96 % 1003,1 hPa 0,0 l/m 0 min 0 min 72 W/m 12,9 km/h (3 Bft) 100,00 %
09.11.2023 09:56 9,5 C 9,4 C 5,6 C 96 % 1003,1 hPa 0,0 l/m 0 min 0 min 78 W/m 12,9 km/h (3 Bft) 97,87 %
09.11.2023 09:58 9,5 C 9,4 C 5,6 C 96 % 1003,1 hPa 0,0 l/m 0 min 0 min 84 W/m 9,7 km/h (2 Bft) 97,73 %
09.11.2023 10:00 9,6 C 9,4 C 5,6 C 96 % 1003,1 hPa 0,0 l/m 0 min 0 min 89 W/m 9,7 km/h (2 Bft) 97,83 %
09.11.2023 10:02 9,6 C 9,4 C 5,6 C 96 % 1003,2 hPa 0,0 l/m 0 min 0 min 83 W/m 12,9 km/h (3 Bft) 95,74 %
09.11.2023 10:04 9,6 C 9,4 C 5,6 C 96 % 1003,3 hPa 0,0 l/m 0 min 0 min 73 W/m 16,1 km/h (3 Bft) 100,00 %
09.11.2023 10:10 9,6 C 9,4 C 5,6 C 96 % 1003,2 hPa 0,0 l/m 0 min 0 min 90 W/m 19,3 km/h (3 Bft) 98,59 %
09.11.2023 10:12 9,6 C 9,4 C 5,6 C 96 % 1003,2 hPa 0,0 l/m 0 min 0 min 112 W/m 25,7 km/h (4 Bft) 97,87 %
09.11.2023 10:14 9,7 C 9,4 C 5,6 C 95 % 1003,1 hPa 0,0 l/m 0 min 0 min 119 W/m 16,1 km/h (3 Bft) 95,65 %
09.11.2023 10:16 9,7 C 9,4 C 5,6 C 95 % 1003,2 hPa 0,0 l/m 0 min 0 min 114 W/m 16,1 km/h (3 Bft) 95,74 %
09.11.2023 10:18 9,7 C 9,4 C 5,6 C 95 % 1003,1 hPa 0,0 l/m 0 min 0 min 104 W/m 19,3 km/h (3 Bft) 97,87 %
09.11.2023 10:20 9,8 C 9,4 C 6,1 C 95 % 1003,1 hPa 0,0 l/m 0 min 0 min 92 W/m 12,9 km/h (3 Bft) 97,87 %
09.11.2023 10:22 9,8 C 9,4 C 6,1 C 95 % 1003,1 hPa 0,0 l/m 0 min 0 min 84 W/m 19,3 km/h (3 Bft) 97,87 %
09.11.2023 10:24 9,8 C 9,4 C 6,1 C 95 % 1003,1 hPa 0,0 l/m 0 min 0 min 77 W/m 16,1 km/h (3 Bft) 97,87 %
09.11.2023 10:26 9,8 C 9,4 C 5,6 C 95 % 1003,1 hPa 0,0 l/m 0 min 0 min 68 W/m 12,9 km/h (3 Bft) 97,87 %
09.11.2023 10:28 9,8 C 9,4 C 5,6 C 95 % 1003,1 hPa 0,0 l/m 0 min 0 min 65 W/m 9,7 km/h (2 Bft) 97,83 %
09.11.2023 10:30 9,8 C 9,4 C 5,6 C 95 % 1003,1 hPa 0,0 l/m 0 min 0 min 65 W/m 12,9 km/h (3 Bft) 97,87 %
09.11.2023 10:32 9,8 C 9,4 C 5,6 C 95 % 1003,1 hPa 0,0 l/m 0 min 0 min 67 W/m 9,7 km/h (2 Bft) 97,87 %
09.11.2023 10:34 9,8 C 9,4 C 5,6 C 95 % 1003,1 hPa 0,0 l/m 0 min 0 min 75 W/m 16,1 km/h (3 Bft) 95,74 %
09.11.2023 10:36 9,8 C 9,4 C 5,6 C 94 % 1003,1 hPa 0,0 l/m 0 min 0 min 83 W/m 12,9 km/h (3 Bft) 97,87 %
09.11.2023 10:38 9,8 C 9,4 C 5,6 C 94 % 1003,1 hPa 0,0 l/m 0 min 0 min 83 W/m 6,4 km/h (2 Bft) 97,87 %
09.11.2023 10:40 9,8 C 9,4 C 5,6 C 94 % 1003,2 hPa 0,0 l/m 0 min 0 min 85 W/m 12,9 km/h (3 Bft) 97,87 %
09.11.2023 10:42 9,8 C 9,4 C 5,6 C 94 % 1003,1 hPa 0,0 l/m 0 min 0 min 93 W/m 19,3 km/h (3 Bft) 97,87 %
09.11.2023 10:44 9,8 C 9,4 C 5,6 C 94 % 1003,2 hPa 0,0 l/m 0 min 0 min 99 W/m 12,9 km/h (3 Bft) 97,83 %
09.11.2023 10:46 9,8 C 9,4 C 6,1 C 94 % 1003,2 hPa 0,0 l/m 0 min 0 min 103 W/m 12,9 km/h (3 Bft) 95,74 %
09.11.2023 10:48 9,8 C 10,0 C 6,1 C 94 % 1003,3 hPa 0,0 l/m 0 min 0 min 104 W/m 9,7 km/h (2 Bft) 97,87 %
09.11.2023 10:50 9,9 C 10,0 C 6,1 C 94 % 1003,3 hPa 0,0 l/m 0 min 0 min 98 W/m 16,1 km/h (3 Bft) 95,74 %
09.11.2023 10:52 9,9 C 9,4 C 6,1 C 94 % 1003,3 hPa 0,0 l/m 0 min 0 min 86 W/m 9,7 km/h (2 Bft) 97,87 %
09.11.2023 10:54 9,9 C 9,4 C 6,1 C 94 % 1003,2 hPa 0,0 l/m 0 min 0 min 85 W/m 9,7 km/h (2 Bft) 100,00 %
09.11.2023 10:56 9,9 C 9,4 C 6,1 C 94 % 1003,3 hPa 0,0 l/m 0 min 0 min 90 W/m 12,9 km/h (3 Bft) 100,00 %
09.11.2023 10:58 9,9 C 10,0 C 6,1 C 94 % 1003,3 hPa 0,0 l/m 0 min 0 min 97 W/m 16,1 km/h (3 Bft) 97,87 %
09.11.2023 11:00 9,9 C 9,4 C 6,1 C 94 % 1003,3 hPa 0,0 l/m 0 min 0 min 95 W/m 6,4 km/h (2 Bft) 97,87 %
09.11.2023 11:02 9,9 C 9,4 C 6,1 C 94 % 1003,3 hPa 0,0 l/m 0 min 0 min 81 W/m 12,9 km/h (3 Bft) 97,83 %
09.11.2023 11:04 9,9 C 9,4 C 5,6 C 94 % 1003,4 hPa 0,0 l/m 0 min 0 min 74 W/m 19,3 km/h (3 Bft) 97,83 %
09.11.2023 11:10 9,9 C 9,4 C 5,6 C 94 % 1003,4 hPa 0,0 l/m 0 min 0 min 77 W/m 22,5 km/h (4 Bft) 96,45 %
09.11.2023 11:12 9,9 C 9,4 C 5,6 C 94 % 1003,5 hPa 0,0 l/m 0 min 0 min 85 W/m 16,1 km/h (3 Bft) 97,83 %
09.11.2023 11:14 9,9 C 9,4 C 5,6 C 93 % 1003,4 hPa 0,0 l/m 0 min 0 min 98 W/m 25,7 km/h (4 Bft) 97,87 %
09.11.2023 11:16 9,9 C 9,4 C 5,6 C 93 % 1003,4 hPa 0,0 l/m 0 min 0 min 107 W/m 16,1 km/h (3 Bft) 97,87 %
09.11.2023 11:18 9,9 C 9,4 C 5,6 C 93 % 1003,3 hPa 0,0 l/m 0 min 0 min 111 W/m 9,7 km/h (2 Bft) 100,00 %
09.11.2023 11:20 9,9 C 10,0 C 6,1 C 93 % 1003,3 hPa 0,0 l/m 0 min 0 min 114 W/m 9,7 km/h (2 Bft) 97,87 %
09.11.2023 11:22 9,9 C 10,0 C 6,1 C 93 % 1003,3 hPa 0,0 l/m 0 min 0 min 120 W/m 12,9 km/h (3 Bft) 97,87 %
09.11.2023 11:24 9,9 C 10,0 C 6,1 C 93 % 1003,2 hPa 0,0 l/m 0 min 0 min 127 W/m 12,9 km/h (3 Bft) 93,62 %
09.11.2023 11:26 10,0 C 10,0 C 6,1 C 93 % 1003,2 hPa 0,0 l/m 0 min 0 min 122 W/m 9,7 km/h (2 Bft) 97,87 %
09.11.2023 11:28 10,0 C 10,0 C 6,1 C 93 % 1003,2 hPa 0,0 l/m 0 min 0 min 127 W/m 12,9 km/h (3 Bft) 95,74 %
09.11.2023 11:30 10,1 C 10,0 C 6,1 C 93 % 1003,2 hPa 0,0 l/m 0 min 0 min 134 W/m 12,9 km/h (3 Bft) 96,30 %
09.11.2023 11:32 10,1 C 10,0 C 6,1 C 93 % 1003,3 hPa 0,0 l/m 0 min 0 min 139 W/m 12,9 km/h (3 Bft) 97,37 %
09.11.2023 11:34 10,1 C 10,0 C 6,1 C 93 % 1003,3 hPa 0,0 l/m 0 min 0 min 133 W/m 16,1 km/h (3 Bft) 100,00 %
09.11.2023 11:36 10,1 C 10,0 C 6,1 C 93 % 1003,3 hPa 0,0 l/m 0 min 0 min 125 W/m 16,1 km/h (3 Bft) 100,00 %
09.11.2023 11:38 10,2 C 10,0 C 6,1 C 93 % 1003,2 hPa 0,0 l/m 0 min 0 min 114 W/m 16,1 km/h (3 Bft) 95,74 %
09.11.2023 11:40 10,2 C 10,0 C 6,1 C 93 % 1003,2 hPa 0,0 l/m 0 min 0 min 112 W/m 12,9 km/h (3 Bft) 100,00 %
09.11.2023 11:42 10,2 C 10,0 C 6,1 C 93 % 1003,2 hPa 0,0 l/m 0 min 0 min 115 W/m 12,9 km/h (3 Bft) 97,87 %
09.11.2023 11:44 10,2 C 10,0 C 6,1 C 93 % 1003,1 hPa 0,0 l/m 0 min 0 min 119 W/m 19,3 km/h (3 Bft) 100,00 %
09.11.2023 11:46 10,2 C 10,0 C 6,1 C 93 % 1003,1 hPa 0,0 l/m 0 min 0 min 117 W/m 12,9 km/h (3 Bft) 100,00 %
09.11.2023 11:48 10,2 C 10,0 C 6,1 C 93 % 1003,1 hPa 0,0 l/m 0 min 0 min 114 W/m 19,3 km/h (3 Bft) 100,00 %
09.11.2023 11:50 10,2 C 10,0 C 6,1 C 93 % 1003,1 hPa 0,0 l/m 0 min 0 min 114 W/m 16,1 km/h (3 Bft) 95,74 %
09.11.2023 11:52 10,2 C 10,0 C 6,1 C 93 % 1003,2 hPa 0,0 l/m 0 min 2 min 105 W/m 16,1 km/h (3 Bft) 97,87 %
09.11.2023 11:54 10,2 C 10,0 C 6,1 C 92 % 1003,2 hPa 0,0 l/m 0 min 2 min 113 W/m 22,5 km/h (4 Bft) 95,83 %
09.11.2023 11:56 10,2 C 10,0 C 6,1 C 92 % 1003,2 hPa 0,0 l/m 0 min 2 min 129 W/m 16,1 km/h (3 Bft) 97,83 %
09.11.2023 11:58 10,2 C 10,0 C 6,1 C 92 % 1003,2 hPa 0,0 l/m 0 min 0 min 134 W/m 22,5 km/h (4 Bft) 97,87 %
09.11.2023 12:00 10,2 C 10,0 C 6,1 C 92 % 1003,1 hPa 0,0 l/m 0 min 0 min 137 W/m 19,3 km/h (3 Bft) 97,87 %
09.11.2023 12:02 10,2 C 10,0 C 6,1 C 92 % 1003,2 hPa 0,0 l/m 0 min 0 min 135 W/m 12,9 km/h (3 Bft) 93,62 %
09.11.2023 12:04 10,2 C 10,0 C 6,1 C 92 % 1003,1 hPa 0,0 l/m 0 min 0 min 136 W/m 22,5 km/h (4 Bft) 95,35 %
09.11.2023 12:08 10,3 C 10,0 C 6,1 C 92 % 1003,1 hPa 0,0 l/m 0 min 0 min 113 W/m 16,1 km/h (3 Bft) 97,87 %
09.11.2023 12:10 10,3 C 10,0 C 6,1 C 92 % 1003,1 hPa 0,0 l/m 0 min 0 min 106 W/m 19,3 km/h (3 Bft) 97,83 %
09.11.2023 12:12 10,3 C 10,0 C 6,1 C 92 % 1003,1 hPa 0,0 l/m 0 min 0 min 113 W/m 19,3 km/h (3 Bft) 97,87 %
09.11.2023 12:16 10,3 C 10,6 C 6,1 C 92 % 1003,1 hPa 0,0 l/m 0 min 0 min 128 W/m 19,3 km/h (3 Bft) 97,87 %
09.11.2023 12:18 10,3 C 10,6 C 6,1 C 92 % 1003,1 hPa 0,0 l/m 0 min 0 min 126 W/m 16,1 km/h (3 Bft) 89,36 %
09.11.2023 12:20 10,4 C 10,6 C 6,1 C 92 % 1003,1 hPa 0,0 l/m 0 min 0 min 134 W/m 19,3 km/h (3 Bft) 95,74 %
09.11.2023 12:22 10,4 C 10,6 C 6,1 C 92 % 1003,0 hPa 0,0 l/m 0 min 0 min 136 W/m 19,3 km/h (3 Bft) 95,74 %
09.11.2023 12:24 10,4 C 10,6 C 6,1 C 92 % 1003,1 hPa 0,0 l/m 0 min 0 min 112 W/m 19,3 km/h (3 Bft) 97,83 %
09.11.2023 12:26 10,4 C 10,6 C 6,1 C 92 % 1003,1 hPa 0,0 l/m 0 min 0 min 114 W/m 19,3 km/h (3 Bft) 100,00 %
09.11.2023 12:28 10,4 C 10,6 C 6,1 C 91 % 1003,1 hPa 0,0 l/m 0 min 0 min 106 W/m 12,9 km/h (3 Bft) 97,87 %
09.11.2023 12:30 10,4 C 10,0 C 6,1 C 91 % 1003,1 hPa 0,0 l/m 0 min 0 min 103 W/m 12,9 km/h (3 Bft) 95,74 %
09.11.2023 12:34 10,4 C 10,0 C 6,1 C 91 % 1003,1 hPa 0,0 l/m 0 min 0 min 116 W/m 16,1 km/h (3 Bft) 96,67 %
09.11.2023 12:36 10,4 C 10,6 C 6,1 C 91 % 1003,0 hPa 0,0 l/m 0 min 0 min 124 W/m 12,9 km/h (3 Bft) 97,78 %
09.11.2023 12:38 10,4 C 10,6 C 6,1 C 91 % 1002,9 hPa 0,0 l/m 0 min 0 min 127 W/m 22,5 km/h (4 Bft) 95,65 %
09.11.2023 12:40 10,4 C 10,6 C 6,1 C 91 % 1002,9 hPa 0,0 l/m 0 min 0 min 143 W/m 19,3 km/h (3 Bft) 100,00 %
09.11.2023 12:42 10,4 C 10,6 C 6,1 C 91 % 1002,9 hPa 0,0 l/m 0 min 0 min 143 W/m 16,1 km/h (3 Bft) 100,00 %
09.11.2023 12:44 10,5 C 10,6 C 6,1 C 91 % 1002,9 hPa 0,0 l/m 0 min 0 min 136 W/m 25,7 km/h (4 Bft) 97,87 %
09.11.2023 12:46 10,5 C 10,6 C 6,1 C 91 % 1002,9 hPa 0,0 l/m 0 min 0 min 135 W/m 16,1 km/h (3 Bft) 97,87 %
09.11.2023 12:48 10,5 C 10,6 C 6,1 C 90 % 1002,9 hPa 0,0 l/m 0 min 0 min 139 W/m 19,3 km/h (3 Bft) 97,87 %
09.11.2023 12:50 10,5 C 10,6 C 6,1 C 90 % 1002,9 hPa 0,0 l/m 0 min 0 min 150 W/m 19,3 km/h (3 Bft) 97,87 %
09.11.2023 12:52 10,6 C 10,6 C 6,1 C 90 % 1002,9 hPa 0,0 l/m 0 min 0 min 142 W/m 16,1 km/h (3 Bft) 97,83 %
09.11.2023 12:54 10,6 C 10,6 C 6,1 C 90 % 1002,9 hPa 0,0 l/m 0 min 0 min 135 W/m 22,5 km/h (4 Bft) 97,87 %
09.11.2023 12:56 10,6 C 10,6 C 6,1 C 90 % 1002,9 hPa 0,0 l/m 0 min 0 min 127 W/m 25,7 km/h (4 Bft) 97,87 %
09.11.2023 12:58 10,6 C 10,6 C 6,1 C 90 % 1002,9 hPa 0,0 l/m 0 min 0 min 124 W/m 22,5 km/h (4 Bft) 95,74 %
09.11.2023 13:00 10,6 C 10,6 C 6,1 C 89 % 1002,9 hPa 0,0 l/m 0 min 0 min 134 W/m 16,1 km/h (3 Bft) 95,74 %
09.11.2023 13:02 10,6 C 10,6 C 6,1 C 89 % 1002,9 hPa 0,0 l/m 0 min 0 min 160 W/m 19,3 km/h (3 Bft) 91,49 %
09.11.2023 13:04 10,6 C 10,6 C 6,1 C 89 % 1002,9 hPa 0,0 l/m 2 min 0 min 186 W/m 12,9 km/h (3 Bft) 94,00 %
09.11.2023 13:06 10,7 C 11,1 C 6,1 C 89 % 1002,8 hPa 0,0 l/m 2 min 0 min 191 W/m 16,1 km/h (3 Bft) 95,65 %
09.11.2023 13:08 10,7 C 11,1 C 6,1 C 89 % 1002,8 hPa 0,0 l/m 2 min 0 min 215 W/m 16,1 km/h (3 Bft) 95,74 %
09.11.2023 13:10 10,7 C 11,1 C 5,6 C 89 % 1002,8 hPa 0,0 l/m 2 min 0 min 189 W/m 16,1 km/h (3 Bft) 95,74 %
09.11.2023 13:12 10,7 C 11,1 C 6,1 C 88 % 1002,8 hPa 0,0 l/m 2 min 0 min 260 W/m 19,3 km/h (3 Bft) 93,62 %
09.11.2023 13:14 10,8 C 11,1 C 6,1 C 88 % 1002,8 hPa 0,0 l/m 2 min 0 min 229 W/m 16,1 km/h (3 Bft) 95,74 %
09.11.2023 13:16 10,8 C 11,7 C 6,1 C 88 % 1002,7 hPa 0,0 l/m 2 min 0 min 202 W/m 16,1 km/h (3 Bft) 95,74 %
09.11.2023 13:18 10,9 C 11,7 C 6,1 C 88 % 1002,7 hPa 0,0 l/m 2 min 0 min 289 W/m 12,9 km/h (3 Bft) 95,74 %
09.11.2023 13:20 10,9 C 11,7 C 6,1 C 88 % 1002,7 hPa 0,0 l/m 2 min 0 min 300 W/m 12,9 km/h (3 Bft) 95,65 %
09.11.2023 13:22 11,0 C 11,7 C 6,1 C 87 % 1002,6 hPa 0,0 l/m 2 min 0 min 194 W/m 16,1 km/h (3 Bft) 95,74 %
09.11.2023 13:24 11,0 C 11,1 C 6,1 C 87 % 1002,7 hPa 0,0 l/m 0 min 0 min 127 W/m 29,0 km/h (5 Bft) 95,74 %
09.11.2023 13:26 10,9 C 11,1 C 5,6 C 86 % 1002,6 hPa 0,0 l/m 0 min 0 min 117 W/m 29,0 km/h (5 Bft) 95,74 %
09.11.2023 13:28 10,9 C 10,6 C 5,6 C 85 % 1002,6 hPa 0,0 l/m 0 min 0 min 122 W/m 16,1 km/h (3 Bft) 95,74 %
09.11.2023 13:30 10,9 C 10,6 C 5,6 C 85 % 1002,6 hPa 0,0 l/m 0 min 0 min 154 W/m 9,7 km/h (2 Bft) 97,87 %
09.11.2023 13:32 10,9 C 11,1 C 5,6 C 85 % 1002,6 hPa 0,0 l/m 0 min 0 min 157 W/m 16,1 km/h (3 Bft) 97,87 %
09.11.2023 13:34 10,9 C 11,1 C 5,6 C 85 % 1002,6 hPa 0,0 l/m 0 min 0 min 145 W/m 12,9 km/h (3 Bft) 100,00 %
09.11.2023 13:36 11,0 C 11,1 C 5,6 C 86 % 1002,5 hPa 0,0 l/m 0 min 0 min 154 W/m 6,4 km/h (2 Bft) 100,00 %
09.11.2023 13:38 11,0 C 11,1 C 6,1 C 86 % 1002,5 hPa 0,0 l/m 2 min 0 min 183 W/m 6,4 km/h (2 Bft) 100,00 %
09.11.2023 13:40 11,1 C 11,7 C 6,1 C 86 % 1002,5 hPa 0,0 l/m 2 min 0 min 224 W/m 12,9 km/h (3 Bft) 100,00 %
09.11.2023 13:42 11,1 C 11,7 C 6,1 C 86 % 1002,4 hPa 0,0 l/m 2 min 0 min 271 W/m 12,9 km/h (3 Bft) 100,00 %
09.11.2023 13:44 11,1 C 11,7 C 6,1 C 86 % 1002,4 hPa 0,0 l/m 2 min 0 min 216 W/m 12,9 km/h (3 Bft) 100,00 %
09.11.2023 13:46 11,2 C 11,7 C 6,1 C 86 % 1002,4 hPa 0,0 l/m 2 min 0 min 180 W/m 12,9 km/h (3 Bft) 100,00 %
09.11.2023 13:48 11,2 C 11,7 C 6,1 C 85 % 1002,4 hPa 0,0 l/m 2 min 0 min 253 W/m 16,1 km/h (3 Bft) 100,00 %
09.11.2023 13:50 11,3 C 12,2 C 6,1 C 85 % 1002,4 hPa 0,0 l/m 2 min 0 min 389 W/m 19,3 km/h (3 Bft) 100,00 %
09.11.2023 13:52 11,3 C 12,2 C 6,1 C 85 % 1002,4 hPa 0,0 l/m 2 min 0 min 374 W/m 16,1 km/h (3 Bft) 100,00 %
09.11.2023 13:54 11,4 C 12,2 C 6,1 C 85 % 1002,4 hPa 0,0 l/m 2 min 0 min 360 W/m 29,0 km/h (5 Bft) 100,00 %
09.11.2023 13:56 11,4 C 12,8 C 6,1 C 84 % 1002,4 hPa 0,0 l/m 2 min 0 min 379 W/m 25,7 km/h (4 Bft) 100,00 %
09.11.2023 13:58 11,6 C 12,8 C 6,1 C 84 % 1002,4 hPa 0,0 l/m 2 min 0 min 356 W/m 16,1 km/h (3 Bft) 100,00 %
09.11.2023 14:00 11,6 C 12,8 C 6,1 C 84 % 1002,3 hPa 0,0 l/m 2 min 0 min 343 W/m 16,1 km/h (3 Bft) 97,83 %
09.11.2023 14:02 11,6 C 12,8 C 6,1 C 83 % 1002,4 hPa 0,0 l/m 0 min 0 min 155 W/m 25,7 km/h (4 Bft) 100,00 %
09.11.2023 14:04 11,6 C 12,2 C 5,6 C 83 % 1002,3 hPa 0,0 l/m 2 min 0 min 291 W/m 32,2 km/h (5 Bft) 100,00 %
09.11.2023 14:06 11,6 C 11,7 C 5,6 C 82 % 1002,4 hPa 0,0 l/m 2 min 0 min 266 W/m 19,3 km/h (3 Bft) 100,00 %
09.11.2023 14:08 11,6 C 11,7 C 5,6 C 82 % 1002,4 hPa 0,0 l/m 2 min 0 min 256 W/m 25,7 km/h (4 Bft) 100,00 %
09.11.2023 14:10 11,5 C 11,1 C 5,6 C 82 % 1002,4 hPa 0,0 l/m 2 min 0 min 211 W/m 19,3 km/h (3 Bft) 100,00 %
09.11.2023 14:12 11,5 C 11,1 C 5,6 C 82 % 1002,3 hPa 0,0 l/m 0 min 0 min 100 W/m 16,1 km/h (3 Bft) 100,00 %
09.11.2023 14:14 11,4 C 11,1 C 6,1 C 82 % 1002,3 hPa 0,0 l/m 0 min 0 min 106 W/m 25,7 km/h (4 Bft) 100,00 %
09.11.2023 14:16 11,4 C 11,1 C 6,1 C 82 % 1002,4 hPa 0,0 l/m 0 min 0 min 98 W/m 22,5 km/h (4 Bft) 100,00 %
09.11.2023 14:18 11,3 C 11,1 C 6,7 C 82 % 1002,3 hPa 0,0 l/m 2 min 0 min 169 W/m 25,7 km/h (4 Bft) 100,00 %
09.11.2023 14:20 11,4 C 11,7 C 6,7 C 82 % 1002,4 hPa 0,0 l/m 2 min 0 min 307 W/m 16,1 km/h (3 Bft) 97,87 %
09.11.2023 14:22 11,4 C 11,7 C 7,2 C 82 % 1002,3 hPa 0,0 l/m 2 min 0 min 207 W/m 25,7 km/h (4 Bft) 100,00 %
09.11.2023 14:24 11,4 C 11,7 C 7,2 C 82 % 1002,3 hPa 0,0 l/m 2 min 0 min 183 W/m 25,7 km/h (4 Bft) 100,00 %
09.11.2023 14:26 11,4 C 11,1 C 7,2 C 82 % 1002,2 hPa 0,0 l/m 2 min 0 min 229 W/m 16,1 km/h (3 Bft) 97,87 %
09.11.2023 14:28 11,4 C 11,7 C 7,2 C 83 % 1002,2 hPa 0,0 l/m 2 min 0 min 220 W/m 19,3 km/h (3 Bft) 97,83 %
09.11.2023 14:30 11,5 C 11,7 C 7,2 C 83 % 1002,2 hPa 0,0 l/m 2 min 0 min 202 W/m 19,3 km/h (3 Bft) 97,87 %
09.11.2023 14:32 11,5 C 11,7 C 7,2 C 82 % 1002,2 hPa 0,0 l/m 2 min 0 min 202 W/m 22,5 km/h (4 Bft) 97,87 %
09.11.2023 14:34 11,5 C 11,7 C 7,2 C 83 % 1002,1 hPa 0,0 l/m 2 min 0 min 153 W/m 16,1 km/h (3 Bft) 91,49 %
09.11.2023 14:36 11,6 C 11,7 C 7,2 C 83 % 1002,2 hPa 0,0 l/m 0 min 0 min 107 W/m 19,3 km/h (3 Bft) 97,87 %
09.11.2023 14:38 11,6 C 11,7 C 7,2 C 83 % 1002,1 hPa 0,0 l/m 0 min 0 min 112 W/m 32,2 km/h (5 Bft) 97,87 %
09.11.2023 14:40 11,6 C 12,2 C 7,2 C 82 % 1002,1 hPa 0,0 l/m 2 min 0 min 154 W/m 35,4 km/h (5 Bft) 97,83 %
09.11.2023 14:42 11,6 C 12,2 C 7,2 C 82 % 1002,0 hPa 0,0 l/m 2 min 0 min 207 W/m 22,5 km/h (4 Bft) 97,87 %
09.11.2023 14:44 11,6 C 12,2 C 7,8 C 82 % 1001,9 hPa 0,0 l/m 2 min 0 min 253 W/m 16,1 km/h (3 Bft) 97,87 %
09.11.2023 14:46 11,7 C 11,7 C 7,8 C 82 % 1002,0 hPa 0,0 l/m 2 min 0 min 245 W/m 35,4 km/h (5 Bft) 97,87 %
09.11.2023 14:48 11,7 C 11,7 C 7,8 C 82 % 1002,0 hPa 0,0 l/m 2 min 0 min 164 W/m 32,2 km/h (5 Bft) 95,74 %
09.11.2023 14:50 11,7 C 11,7 C 7,8 C 82 % 1002,0 hPa 0,0 l/m 0 min 0 min 90 W/m 19,3 km/h (3 Bft) 97,87 %
09.11.2023 14:52 11,7 C 11,1 C 7,8 C 82 % 1001,9 hPa 0,0 l/m 0 min 0 min 72 W/m 16,1 km/h (3 Bft) 95,74 %
09.11.2023 14:54 11,7 C 11,1 C 7,2 C 82 % 1001,8 hPa 0,0 l/m 0 min 0 min 61 W/m 12,9 km/h (3 Bft) 97,83 %
09.11.2023 14:56 11,7 C 11,1 C 7,2 C 82 % 1001,9 hPa 0,0 l/m 0 min 0 min 58 W/m 22,5 km/h (4 Bft) 95,74 %
09.11.2023 14:58 11,6 C 11,1 C 7,2 C 82 % 1001,9 hPa 0,0 l/m 0 min 0 min 54 W/m 22,5 km/h (4 Bft) 95,74 %
09.11.2023 15:00 11,6 C 11,1 C 7,2 C 82 % 1001,8 hPa 0,0 l/m 0 min 0 min 68 W/m 19,3 km/h (3 Bft) 95,74 %
09.11.2023 15:02 11,6 C 11,1 C 7,2 C 83 % 1001,9 hPa 0,0 l/m 0 min 0 min 78 W/m 9,7 km/h (2 Bft) 95,74 %
09.11.2023 15:04 11,5 C 11,1 C 7,2 C 83 % 1001,9 hPa 0,0 l/m 0 min 0 min 86 W/m 16,1 km/h (3 Bft) 97,87 %
09.11.2023 15:06 11,5 C 11,1 C 7,2 C 83 % 1001,8 hPa 0,0 l/m 2 min 0 min 114 W/m 12,9 km/h (3 Bft) 95,74 %
09.11.2023 15:08 11,5 C 11,1 C 7,2 C 83 % 1001,8 hPa 0,0 l/m 0 min 0 min 106 W/m 16,1 km/h (3 Bft) 97,83 %
09.11.2023 15:10 11,5 C 11,1 C 7,2 C 83 % 1001,8 hPa 0,0 l/m 2 min 0 min 108 W/m 16,1 km/h (3 Bft) 93,62 %
09.11.2023 15:12 11,5 C 11,1 C 7,2 C 83 % 1001,8 hPa 0,0 l/m 2 min 0 min 104 W/m 12,9 km/h (3 Bft) 95,74 %
09.11.2023 15:14 11,4 C 11,1 C 7,2 C 83 % 1001,8 hPa 0,0 l/m 2 min 0 min 104 W/m 29,0 km/h (5 Bft) 95,74 %
09.11.2023 15:16 11,4 C 11,1 C 7,2 C 83 % 1001,7 hPa 0,0 l/m 2 min 0 min 105 W/m 22,5 km/h (4 Bft) 93,62 %
09.11.2023 15:18 11,4 C 11,1 C 7,2 C 83 % 1001,7 hPa 0,0 l/m 2 min 0 min 105 W/m 12,9 km/h (3 Bft) 95,74 %
09.11.2023 15:20 11,4 C 11,1 C 7,2 C 83 % 1001,6 hPa 0,0 l/m 2 min 0 min 103 W/m 29,0 km/h (5 Bft) 93,62 %
09.11.2023 15:22 11,4 C 11,1 C 7,2 C 83 % 1001,6 hPa 0,0 l/m 2 min 0 min 96 W/m 22,5 km/h (4 Bft) 95,65 %
09.11.2023 15:24 11,4 C 11,1 C 7,2 C 83 % 1001,5 hPa 0,0 l/m 0 min 0 min 90 W/m 25,7 km/h (4 Bft) 93,62 %
09.11.2023 15:26 11,3 C 11,1 C 7,2 C 83 % 1001,4 hPa 0,0 l/m 0 min 0 min 83 W/m 16,1 km/h (3 Bft) 95,74 %
09.11.2023 15:28 11,3 C 11,1 C 7,2 C 83 % 1001,5 hPa 0,0 l/m 0 min 0 min 75 W/m 16,1 km/h (3 Bft) 91,49 %
09.11.2023 15:30 11,3 C 11,1 C 7,2 C 83 % 1001,5 hPa 0,0 l/m 0 min 0 min 66 W/m 16,1 km/h (3 Bft) 95,74 %
09.11.2023 15:32 11,3 C 10,6 C 7,2 C 83 % 1001,5 hPa 0,0 l/m 0 min 0 min 56 W/m 9,7 km/h (2 Bft) 95,74 %
09.11.2023 15:34 11,3 C 10,6 C 7,2 C 84 % 1001,5 hPa 0,0 l/m 0 min 0 min 47 W/m 6,4 km/h (2 Bft) 95,74 %
09.11.2023 15:36 11,3 C 10,6 C 7,2 C 84 % 1001,5 hPa 0,0 l/m 0 min 0 min 43 W/m 19,3 km/h (3 Bft) 95,65 %
09.11.2023 15:38 11,3 C 10,6 C 7,2 C 84 % 1001,5 hPa 0,0 l/m 0 min 0 min 40 W/m 22,5 km/h (4 Bft) 93,62 %
09.11.2023 15:40 11,2 C 10,6 C 7,2 C 84 % 1001,5 hPa 0,0 l/m 0 min 0 min 40 W/m 16,1 km/h (3 Bft) 95,74 %
09.11.2023 15:42 11,2 C 10,6 C 7,2 C 84 % 1001,4 hPa 0,0 l/m 0 min 0 min 42 W/m 6,4 km/h (2 Bft) 93,62 %
09.11.2023 15:44 11,2 C 10,6 C 7,2 C 84 % 1001,4 hPa 0,0 l/m 0 min 0 min 44 W/m 6,4 km/h (2 Bft) 95,74 %
09.11.2023 15:46 11,2 C 10,6 C 7,2 C 84 % 1001,4 hPa 0,0 l/m 0 min 0 min 47 W/m 9,7 km/h (2 Bft) 97,87 %
09.11.2023 15:48 11,2 C 10,6 C 7,2 C 84 % 1001,3 hPa 0,0 l/m 0 min 0 min 49 W/m 6,4 km/h (2 Bft) 91,49 %
09.11.2023 15:50 11,2 C 10,6 C 7,2 C 85 % 1001,3 hPa 0,0 l/m 0 min 0 min 49 W/m 3,2 km/h (1 Bft) 97,83 %
09.11.2023 15:52 11,2 C 10,6 C 7,2 C 85 % 1001,2 hPa 0,0 l/m 0 min 0 min 49 W/m 9,7 km/h (2 Bft) 97,87 %
09.11.2023 15:54 11,1 C 10,6 C 7,2 C 85 % 1001,2 hPa 0,0 l/m 0 min 0 min 49 W/m 6,4 km/h (2 Bft) 95,74 %
09.11.2023 15:56 11,1 C 10,6 C 7,2 C 84 % 1001,2 hPa 0,0 l/m 0 min 0 min 47 W/m 16,1 km/h (3 Bft) 97,87 %
09.11.2023 15:58 11,1 C 10,6 C 7,2 C 84 % 1001,2 hPa 0,0 l/m 0 min 0 min 45 W/m 12,9 km/h (3 Bft) 93,62 %
09.11.2023 16:00 11,0 C 10,6 C 7,2 C 84 % 1001,2 hPa 0,0 l/m 0 min 0 min 42 W/m 12,9 km/h (3 Bft) 97,87 %
09.11.2023 16:02 11,0 C 10,6 C 7,2 C 84 % 1001,0 hPa 0,0 l/m 0 min 0 min 44 W/m 12,9 km/h (3 Bft) 97,87 %
09.11.2023 16:04 10,9 C 10,6 C 7,2 C 84 % 1001,0 hPa 0,0 l/m 0 min 0 min 46 W/m 12,9 km/h (3 Bft) 100,00 %
09.11.2023 16:06 10,9 C 10,6 C 7,2 C 84 % 1001,0 hPa 0,0 l/m 0 min 0 min 45 W/m 12,9 km/h (3 Bft) 100,00 %
09.11.2023 16:08 10,9 C 10,6 C 7,2 C 84 % 1001,0 hPa 0,0 l/m 0 min 0 min 42 W/m 9,7 km/h (2 Bft) 100,00 %
09.11.2023 16:10 10,9 C 10,6 C 7,2 C 84 % 1000,9 hPa 0,0 l/m 0 min 0 min 40 W/m 12,9 km/h (3 Bft) 95,74 %
09.11.2023 16:12 10,9 C 10,6 C 6,7 C 84 % 1001,0 hPa 0,0 l/m 2 min 0 min 44 W/m 19,3 km/h (3 Bft) 100,00 %
09.11.2023 16:14 10,9 C 10,6 C 6,7 C 84 % 1001,0 hPa 0,0 l/m 2 min 0 min 55 W/m 19,3 km/h (3 Bft) 100,00 %
09.11.2023 16:16 10,9 C 10,6 C 7,2 C 84 % 1000,9 hPa 0,0 l/m 2 min 0 min 61 W/m 9,7 km/h (2 Bft) 100,00 %
09.11.2023 16:18 10,9 C 10,6 C 7,2 C 84 % 1001,0 hPa 0,0 l/m 2 min 0 min 50 W/m 9,7 km/h (2 Bft) 100,00 %
09.11.2023 16:20 10,9 C 10,6 C 7,2 C 84 % 1000,9 hPa 0,0 l/m 2 min 0 min 50 W/m 16,1 km/h (3 Bft) 100,00 %
09.11.2023 16:22 10,9 C 10,6 C 7,2 C 84 % 1000,8 hPa 0,0 l/m 2 min 0 min 55 W/m 9,7 km/h (2 Bft) 97,83 %
09.11.2023 16:24 10,9 C 10,6 C 7,2 C 84 % 1000,8 hPa 0,0 l/m 2 min 0 min 56 W/m 16,1 km/h (3 Bft) 100,00 %
09.11.2023 16:26 10,9 C 10,6 C 7,2 C 84 % 1000,8 hPa 0,0 l/m 2 min 0 min 49 W/m 12,9 km/h (3 Bft) 100,00 %
09.11.2023 16:28 10,9 C 10,6 C 7,2 C 84 % 1000,7 hPa 0,0 l/m 2 min 0 min 41 W/m 16,1 km/h (3 Bft) 100,00 %
09.11.2023 16:30 10,9 C 10,6 C 7,2 C 83 % 1000,7 hPa 0,0 l/m 2 min 0 min 36 W/m 12,9 km/h (3 Bft) 100,00 %
09.11.2023 16:32 10,9 C 10,6 C 6,7 C 84 % 1000,7 hPa 0,0 l/m 2 min 0 min 33 W/m 16,1 km/h (3 Bft) 100,00 %
09.11.2023 16:34 10,9 C 10,6 C 6,7 C 84 % 1000,7 hPa 0,0 l/m 2 min 0 min 31 W/m 6,4 km/h (2 Bft) 100,00 %
09.11.2023 16:36 10,9 C 10,0 C 6,7 C 84 % 1000,8 hPa 0,0 l/m 2 min 0 min 28 W/m 12,9 km/h (3 Bft) 100,00 %
09.11.2023 16:38 10,9 C 10,0 C 6,7 C 83 % 1000,7 hPa 0,0 l/m 2 min 0 min 24 W/m 12,9 km/h (3 Bft) 97,87 %
09.11.2023 16:40 10,8 C 10,0 C 6,7 C 83 % 1000,8 hPa 0,0 l/m 0 min 0 min 17 W/m 6,4 km/h (2 Bft) 100,00 %
09.11.2023 16:42 10,8 C 10,0 C 6,7 C 83 % 1000,7 hPa 0,0 l/m 0 min 0 min 12 W/m 12,9 km/h (3 Bft) 97,87 %
09.11.2023 16:44 10,8 C 10,0 C 6,7 C 84 % 1000,7 hPa 0,0 l/m 0 min 0 min 10 W/m 12,9 km/h (3 Bft) 100,00 %
09.11.2023 16:46 10,8 C 10,0 C 6,7 C 84 % 1000,7 hPa 0,0 l/m 0 min 0 min 8 W/m 6,4 km/h (2 Bft) 100,00 %
09.11.2023 16:48 10,8 C 10,0 C 6,7 C 84 % 1000,7 hPa 0,0 l/m 0 min 0 min 6 W/m 12,9 km/h (3 Bft) 100,00 %
09.11.2023 16:50 10,8 C 10,0 C 6,7 C 84 % 1000,7 hPa 0,0 l/m 0 min 0 min 1 W/m 12,9 km/h (3 Bft) 100,00 %
09.11.2023 16:52 10,8 C 10,0 C 6,7 C 84 % 1000,6 hPa 0,0 l/m 0 min 0 min 0 W/m 12,9 km/h (3 Bft) 100,00 %
09.11.2023 16:54 10,7 C 10,0 C 6,7 C 84 % 1000,6 hPa 0,0 l/m 0 min 0 min 0 W/m 16,1 km/h (3 Bft) 100,00 %
09.11.2023 16:56 10,7 C 10,0 C 6,7 C 84 % 1000,6 hPa 0,0 l/m 0 min 0 min 0 W/m 12,9 km/h (3 Bft) 100,00 %
09.11.2023 16:58 10,7 C 10,0 C 6,7 C 84 % 1000,5 hPa 0,0 l/m 0 min 0 min 0 W/m 6,4 km/h (2 Bft) 95,74 %
09.11.2023 17:00 10,7 C 10,0 C 6,7 C 84 % 1000,6 hPa 0,0 l/m 0 min 0 min 0 W/m 9,7 km/h (2 Bft) 100,00 %
09.11.2023 17:02 10,7 C 10,0 C 6,7 C 84 % 1000,6 hPa 0,0 l/m 0 min 0 min 0 W/m 9,7 km/h (2 Bft) 100,00 %
09.11.2023 17:04 10,7 C 10,0 C 6,7 C 84 % 1000,5 hPa 0,0 l/m 0 min 0 min 0 W/m 6,4 km/h (2 Bft) 100,00 %
09.11.2023 17:06 10,7 C 10,0 C 6,7 C 84 % 1000,4 hPa 0,0 l/m 0 min 0 min 0 W/m 9,7 km/h (2 Bft) 96,55 %
09.11.2023 17:08 10,7 C 10,0 C 6,7 C 84 % 1000,4 hPa 0,0 l/m 0 min 0 min 0 W/m 6,4 km/h (2 Bft) 97,14 %
09.11.2023 17:10 10,6 C 10,0 C 6,7 C 84 % 1000,4 hPa 0,0 l/m 0 min 0 min 0 W/m 12,9 km/h (3 Bft) 95,74 %
09.11.2023 17:12 10,6 C 10,0 C 6,7 C 84 % 1000,3 hPa 0,0 l/m 0 min 0 min 0 W/m 9,7 km/h (2 Bft) 97,87 %
09.11.2023 17:14 10,6 C 10,0 C 6,7 C 84 % 1000,3 hPa 0,0 l/m 0 min 0 min 0 W/m 12,9 km/h (3 Bft) 95,74 %
09.11.2023 17:16 10,6 C 10,0 C 6,7 C 84 % 1000,2 hPa 0,0 l/m 0 min 0 min 0 W/m 6,4 km/h (2 Bft) 93,62 %
09.11.2023 17:18 10,6 C 10,0 C 6,7 C 84 % 1000,1 hPa 0,0 l/m 0 min 0 min 0 W/m 9,7 km/h (2 Bft) 95,74 %
09.11.2023 17:20 10,6 C 10,0 C 6,7 C 84 % 1000,0 hPa 0,0 l/m 0 min 0 min 0 W/m 6,4 km/h (2 Bft) 95,65 %
09.11.2023 17:22 10,6 C 10,0 C 6,7 C 84 % 1000,1 hPa 0,0 l/m 0 min 0 min 0 W/m 19,3 km/h (3 Bft) 95,74 %
09.11.2023 17:24 10,6 C 10,0 C 6,7 C 83 % 1000,1 hPa 0,0 l/m 0 min 0 min 0 W/m 16,1 km/h (3 Bft) 95,74 %
09.11.2023 17:26 10,6 C 10,0 C 6,7 C 83 % 1000,0 hPa 0,0 l/m 0 min 0 min 0 W/m 12,9 km/h (3 Bft) 95,74 %
09.11.2023 17:28 10,6 C 10,0 C 6,7 C 83 % 1000,0 hPa 0,0 l/m 0 min 0 min 0 W/m 12,9 km/h (3 Bft) 95,74 %
09.11.2023 17:30 10,6 C 10,0 C 6,7 C 83 % 999,9 hPa 0,0 l/m 0 min 0 min 0 W/m 9,7 km/h (2 Bft) 95,74 %
09.11.2023 17:32 10,6 C 10,0 C 6,7 C 83 % 999,9 hPa 0,0 l/m 0 min 0 min 0 W/m 12,9 km/h (3 Bft) 93,62 %
09.11.2023 17:34 10,6 C 10,0 C 6,7 C 83 % 999,9 hPa 0,0 l/m 0 min 0 min 0 W/m 6,4 km/h (2 Bft) 93,48 %
09.11.2023 17:36 10,6 C 10,0 C 6,7 C 83 % 999,8 hPa 0,0 l/m 0 min 0 min 0 W/m 12,9 km/h (3 Bft) 95,74 %
09.11.2023 17:38 10,6 C 10,0 C 6,7 C 83 % 1000,0 hPa 0,0 l/m 0 min 0 min 0 W/m 12,9 km/h (3 Bft) 95,74 %
09.11.2023 17:40 10,6 C 10,0 C 6,7 C 83 % 1000,0 hPa 0,0 l/m 0 min 0 min 0 W/m 16,1 km/h (3 Bft) 95,74 %
09.11.2023 17:42 10,6 C 10,0 C 6,7 C 83 % 1000,0 hPa 0,0 l/m 0 min 0 min 0 W/m 19,3 km/h (3 Bft) 95,74 %
09.11.2023 17:44 10,6 C 10,0 C 6,7 C 83 % 1000,0 hPa 0,0 l/m 0 min 0 min 0 W/m 16,1 km/h (3 Bft) 97,87 %
09.11.2023 17:46 10,6 C 10,0 C 6,7 C 83 % 1000,1 hPa 0,0 l/m 0 min 0 min 0 W/m 16,1 km/h (3 Bft) 91,49 %
09.11.2023 17:48 10,6 C 10,0 C 6,7 C 83 % 1000,1 hPa 0,0 l/m 0 min 0 min 0 W/m 16,1 km/h (3 Bft) 95,65 %
09.11.2023 17:50 10,6 C 10,0 C 6,7 C 83 % 1000,1 hPa 0,0 l/m 0 min 0 min 0 W/m 9,7 km/h (2 Bft) 93,62 %
09.11.2023 17:52 10,6 C 10,0 C 6,7 C 83 % 1000,1 hPa 0,0 l/m 0 min 0 min 0 W/m 16,1 km/h (3 Bft) 95,74 %
09.11.2023 17:54 10,6 C 10,0 C 6,7 C 83 % 1000,1 hPa 0,0 l/m 0 min 0 min 0 W/m 6,4 km/h (2 Bft) 95,74 %
09.11.2023 17:56 10,6 C 10,0 C 6,7 C 83 % 1000,0 hPa 0,0 l/m 0 min 0 min 0 W/m 9,7 km/h (2 Bft) 95,74 %
09.11.2023 17:58 10,6 C 10,0 C 6,7 C 83 % 1000,0 hPa 0,0 l/m 0 min 0 min 0 W/m 6,4 km/h (2 Bft) 95,74 %
09.11.2023 18:00 10,6 C 10,0 C 6,7 C 83 % 999,9 hPa 0,0 l/m 0 min 0 min 0 W/m 12,9 km/h (3 Bft) 95,65 %
09.11.2023 18:02 10,6 C 10,0 C 6,7 C 83 % 999,9 hPa 0,0 l/m 0 min 0 min 0 W/m 12,9 km/h (3 Bft) 95,74 %
09.11.2023 18:04 10,6 C 10,0 C 6,7 C 83 % 999,9 hPa 0,0 l/m 0 min 0 min 0 W/m 16,1 km/h (3 Bft) 98,04 %
09.11.2023 18:08 10,6 C 10,0 C 6,7 C 83 % 999,9 hPa 0,0 l/m 0 min 0 min 0 W/m 19,3 km/h (3 Bft) 96,81 %
09.11.2023 18:10 10,6 C 10,0 C 6,7 C 83 % 999,9 hPa 0,0 l/m 0 min 0 min 0 W/m 12,9 km/h (3 Bft) 95,74 %
09.11.2023 18:12 10,6 C 10,0 C 6,7 C 83 % 999,8 hPa 0,0 l/m 0 min 0 min 0 W/m 16,1 km/h (3 Bft) 93,48 %
09.11.2023 18:14 10,6 C 10,0 C 6,7 C 83 % 999,8 hPa 0,0 l/m 0 min 0 min 0 W/m 12,9 km/h (3 Bft) 97,87 %
09.11.2023 18:16 10,6 C 10,0 C 6,7 C 83 % 999,8 hPa 0,0 l/m 0 min 0 min 0 W/m 9,7 km/h (2 Bft) 97,87 %
09.11.2023 18:18 10,6 C 10,0 C 6,7 C 83 % 999,8 hPa 0,0 l/m 0 min 0 min 0 W/m 12,9 km/h (3 Bft) 97,87 %
09.11.2023 18:20 10,6 C 10,0 C 6,7 C 83 % 999,8 hPa 0,0 l/m 0 min 0 min 0 W/m 12,9 km/h (3 Bft) 95,74 %
09.11.2023 18:22 10,6 C 10,0 C 6,7 C 83 % 999,8 hPa 0,0 l/m 0 min 0 min 0 W/m 12,9 km/h (3 Bft) 97,87 %
09.11.2023 18:24 10,6 C 10,0 C 6,7 C 83 % 999,8 hPa 0,0 l/m 0 min 0 min 0 W/m 19,3 km/h (3 Bft) 97,87 %
09.11.2023 18:26 10,6 C 10,0 C 6,7 C 83 % 999,8 hPa 0,0 l/m 0 min 0 min 0 W/m 9,7 km/h (2 Bft) 97,83 %
09.11.2023 18:28 10,6 C 10,0 C 6,7 C 83 % 999,8 hPa 0,0 l/m 0 min 0 min 0 W/m 9,7 km/h (2 Bft) 97,87 %
09.11.2023 18:30 10,6 C 10,0 C 6,7 C 83 % 999,8 hPa 0,0 l/m 0 min 0 min 0 W/m 12,9 km/h (3 Bft) 93,62 %
09.11.2023 18:32 10,6 C 10,0 C 6,7 C 83 % 999,7 hPa 0,0 l/m 0 min 0 min 0 W/m 12,9 km/h (3 Bft) 97,87 %
09.11.2023 18:34 10,6 C 10,0 C 6,7 C 83 % 999,7 hPa 0,0 l/m 0 min 0 min 0 W/m 3,2 km/h (1 Bft) 97,87 %
09.11.2023 18:36 10,6 C 10,0 C 6,7 C 83 % 999,7 hPa 0,0 l/m 0 min 0 min 0 W/m 6,4 km/h (2 Bft) 100,00 %
09.11.2023 18:38 10,6 C 10,0 C 6,7 C 83 % 999,7 hPa 0,0 l/m 0 min 2 min 0 W/m 6,4 km/h (2 Bft) 100,00 %
09.11.2023 18:40 10,6 C 10,0 C 6,1 C 84 % 999,7 hPa 0,0 l/m 0 min 2 min 0 W/m 6,4 km/h (2 Bft) 100,00 %
09.11.2023 18:42 10,6 C 9,4 C 6,1 C 84 % 999,7 hPa 0,0 l/m 0 min 2 min 0 W/m 12,9 km/h (3 Bft) 97,87 %
09.11.2023 18:44 10,6 C 9,4 C 5,6 C 84 % 999,7 hPa 0,0 l/m 0 min 2 min 0 W/m 12,9 km/h (3 Bft) 100,00 %
09.11.2023 18:46 10,5 C 9,4 C 5,6 C 85 % 999,7 hPa 0,0 l/m 0 min 2 min 0 W/m 19,3 km/h (3 Bft) 97,87 %
09.11.2023 18:48 10,4 C 9,4 C 5,0 C 85 % 999,7 hPa 0,2 l/m 0 min 2 min 0 W/m 19,3 km/h (3 Bft) 100,00 %
09.11.2023 18:50 10,4 C 9,4 C 5,0 C 86 % 999,6 hPa 0,0 l/m 0 min 2 min 0 W/m 6,4 km/h (2 Bft) 97,87 %
09.11.2023 18:52 10,4 C 9,4 C 5,0 C 86 % 999,5 hPa 0,0 l/m 0 min 2 min 0 W/m 6,4 km/h (2 Bft) 97,83 %
09.11.2023 18:54 10,3 C 8,9 C 5,0 C 87 % 999,5 hPa 0,0 l/m 0 min 2 min 0 W/m 6,4 km/h (2 Bft) 100,00 %
09.11.2023 18:56 10,3 C 8,9 C 5,0 C 87 % 999,5 hPa 0,0 l/m 0 min 2 min 0 W/m 12,9 km/h (3 Bft) 100,00 %
09.11.2023 18:58 10,2 C 8,9 C 5,0 C 87 % 999,4 hPa 0,2 l/m 0 min 2 min 0 W/m 6,4 km/h (2 Bft) 100,00 %
09.11.2023 19:00 10,2 C 8,9 C 5,0 C 88 % 999,4 hPa 0,0 l/m 0 min 2 min 0 W/m 9,7 km/h (2 Bft) 100,00 %
09.11.2023 19:02 10,1 C 8,9 C 5,0 C 88 % 999,4 hPa 0,0 l/m 0 min 2 min 0 W/m 6,4 km/h (2 Bft) 95,74 %
09.11.2023 19:04 10,1 C 8,9 C 5,0 C 88 % 999,3 hPa 0,0 l/m 0 min 2 min 0 W/m 6,4 km/h (2 Bft) 95,92 %
09.11.2023 19:06 10,0 C 8,9 C 5,0 C 89 % 999,3 hPa 0,0 l/m 0 min 0 min 0 W/m 6,4 km/h (2 Bft) 95,74 %
09.11.2023 19:08 9,9 C 8,9 C 5,0 C 89 % 999,4 hPa 0,0 l/m 0 min 0 min 0 W/m 9,7 km/h (2 Bft) 97,87 %
09.11.2023 19:10 9,9 C 8,9 C 5,0 C 89 % 999,3 hPa 0,0 l/m 0 min 0 min 0 W/m 6,4 km/h (2 Bft) 95,74 %
09.11.2023 19:12 9,9 C 8,9 C 5,0 C 89 % 999,3 hPa 0,0 l/m 0 min 0 min 0 W/m 3,2 km/h (1 Bft) 97,87 %
09.11.2023 19:14 9,8 C 8,9 C 5,0 C 90 % 999,2 hPa 0,0 l/m 0 min 0 min 0 W/m 6,4 km/h (2 Bft) 97,87 %
09.11.2023 19:16 9,8 C 8,9 C 5,0 C 90 % 999,1 hPa 0,0 l/m 0 min 0 min 0 W/m 6,4 km/h (2 Bft) 95,74 %
09.11.2023 19:18 9,7 C 8,9 C 5,0 C 90 % 999,1 hPa 0,0 l/m 0 min 0 min 0 W/m 6,4 km/h (2 Bft) 97,83 %
09.11.2023 19:20 9,7 C 8,9 C 5,0 C 90 % 999,0 hPa 0,0 l/m 0 min 0 min 0 W/m 19,3 km/h (3 Bft) 95,74 %
09.11.2023 19:22 9,7 C 8,9 C 5,0 C 90 % 999,0 hPa 0,0 l/m 0 min 0 min 0 W/m 6,4 km/h (2 Bft) 95,74 %
09.11.2023 19:24 9,7 C 8,9 C 5,0 C 90 % 998,9 hPa 0,0 l/m 0 min 0 min 0 W/m 6,4 km/h (2 Bft) 97,87 %
09.11.2023 19:26 9,7 C 8,9 C 5,0 C 90 % 999,0 hPa 0,0 l/m 0 min 0 min 0 W/m 6,4 km/h (2 Bft) 97,87 %
09.11.2023 19:28 9,6 C 8,9 C 5,0 C 90 % 999,0 hPa 0,0 l/m 0 min 0 min 0 W/m 6,4 km/h (2 Bft) 97,87 %
09.11.2023 19:30 9,6 C 8,9 C 5,0 C 90 % 998,9 hPa 0,0 l/m 0 min 2 min 0 W/m 19,3 km/h (3 Bft) 97,87 %
09.11.2023 19:32 9,6 C 8,9 C 5,0 C 90 % 998,9 hPa 0,0 l/m 0 min 2 min 0 W/m 16,1 km/h (3 Bft) 97,83 %
09.11.2023 19:34 9,6 C 8,9 C 5,0 C 91 % 998,9 hPa 0,0 l/m 0 min 2 min 0 W/m 12,9 km/h (3 Bft) 100,00 %
09.11.2023 19:36 9,6 C 8,9 C 5,0 C 91 % 999,0 hPa 0,2 l/m 0 min 2 min 0 W/m 16,1 km/h (3 Bft) 100,00 %
09.11.2023 19:38 9,6 C 8,3 C 5,0 C 91 % 999,0 hPa 0,0 l/m 0 min 2 min 0 W/m 25,7 km/h (4 Bft) 100,00 %
09.11.2023 19:40 9,6 C 8,3 C 5,0 C 91 % 999,0 hPa 0,0 l/m 0 min 2 min 0 W/m 51,5 km/h (7 Bft) 100,00 %
09.11.2023 19:42 9,6 C 8,3 C 5,0 C 91 % 998,9 hPa 0,0 l/m 0 min 2 min 0 W/m 35,4 km/h (5 Bft) 100,00 %
09.11.2023 19:44 9,6 C 8,3 C 4,4 C 91 % 998,8 hPa 0,0 l/m 0 min 2 min 0 W/m 45,1 km/h (6 Bft) 100,00 %
09.11.2023 19:46 9,5 C 7,8 C 4,4 C 91 % 998,8 hPa 0,2 l/m 0 min 2 min 0 W/m 32,2 km/h (5 Bft) 100,00 %
09.11.2023 19:48 9,4 C 7,8 C 4,4 C 91 % 998,8 hPa 0,0 l/m 0 min 2 min 0 W/m 29,0 km/h (5 Bft) 100,00 %
09.11.2023 19:50 9,3 C 7,8 C 4,4 C 91 % 998,8 hPa 0,0 l/m 0 min 2 min 0 W/m 35,4 km/h (5 Bft) 100,00 %
09.11.2023 19:52 9,3 C 7,8 C 4,4 C 91 % 999,0 hPa 0,0 l/m 0 min 2 min 0 W/m 35,4 km/h (5 Bft) 97,87 %
09.11.2023 19:54 9,2 C 7,8 C 4,4 C 90 % 999,0 hPa 0,0 l/m 0 min 2 min 0 W/m 41,8 km/h (6 Bft) 100,00 %
09.11.2023 19:56 9,1 C 7,8 C 4,4 C 91 % 999,2 hPa 0,0 l/m 0 min 2 min 0 W/m 35,4 km/h (5 Bft) 97,87 %
09.11.2023 19:58 9,0 C 7,2 C 4,4 C 91 % 999,1 hPa 0,0 l/m 0 min 2 min 0 W/m 48,3 km/h (6 Bft) 100,00 %
09.11.2023 20:00 8,9 C 7,2 C 4,4 C 91 % 999,2 hPa 0,0 l/m 0 min 2 min 0 W/m 35,4 km/h (5 Bft) 97,87 %
09.11.2023 20:02 8,8 C 7,2 C 4,4 C 91 % 999,2 hPa 0,0 l/m 0 min 2 min 0 W/m 22,5 km/h (4 Bft) 97,87 %
09.11.2023 20:04 8,8 C 7,2 C 4,4 C 91 % 999,3 hPa 0,0 l/m 0 min 2 min 0 W/m 32,2 km/h (5 Bft) 100,00 %
09.11.2023 20:06 8,7 C 7,2 C 3,9 C 92 % 999,4 hPa 0,0 l/m 0 min 2 min 0 W/m 25,7 km/h (4 Bft) 97,92 %
09.11.2023 20:08 8,7 C 7,2 C 3,9 C 92 % 999,4 hPa 0,0 l/m 0 min 2 min 0 W/m 22,5 km/h (4 Bft) 97,14 %
09.11.2023 20:10 8,6 C 7,2 C 3,9 C 92 % 999,4 hPa 0,0 l/m 0 min 2 min 0 W/m 19,3 km/h (3 Bft) 97,87 %
09.11.2023 20:12 8,6 C 7,2 C 3,9 C 92 % 999,4 hPa 0,0 l/m 0 min 2 min 0 W/m 29,0 km/h (5 Bft) 100,00 %
09.11.2023 20:14 8,6 C 7,2 C 3,9 C 92 % 999,4 hPa 0,2 l/m 0 min 2 min 0 W/m 22,5 km/h (4 Bft) 95,74 %
09.11.2023 20:16 8,5 C 7,2 C 3,9 C 92 % 999,4 hPa 0,0 l/m 0 min 2 min 0 W/m 19,3 km/h (3 Bft) 97,83 %
09.11.2023 20:18 8,4 C 7,2 C 3,9 C 92 % 999,5 hPa 0,0 l/m 0 min 2 min 0 W/m 19,3 km/h (3 Bft) 97,87 %
09.11.2023 20:20 8,4 C 7,2 C 3,9 C 92 % 999,5 hPa 0,0 l/m 0 min 0 min 0 W/m 16,1 km/h (3 Bft) 93,62 %
09.11.2023 20:22 8,3 C 7,2 C 3,9 C 92 % 999,5 hPa 0,0 l/m 0 min 0 min 0 W/m 12,9 km/h (3 Bft) 97,87 %
09.11.2023 20:24 8,3 C 7,2 C 3,9 C 93 % 999,5 hPa 0,0 l/m 0 min 2 min 0 W/m 19,3 km/h (3 Bft) 95,74 %
09.11.2023 20:26 8,3 C 7,2 C 3,9 C 93 % 999,5 hPa 0,0 l/m 0 min 2 min 0 W/m 25,7 km/h (4 Bft) 78,72 %
09.11.2023 20:28 8,3 C 7,2 C 3,9 C 93 % 999,5 hPa 0,0 l/m 0 min 2 min 0 W/m 25,7 km/h (4 Bft) 66,67 %
09.11.2023 20:30 8,3 C 7,2 C 3,9 C 93 % 999,6 hPa 0,0 l/m 0 min 0 min 0 W/m 22,5 km/h (4 Bft) 95,74 %
09.11.2023 20:32 8,2 C 7,2 C 3,9 C 93 % 999,5 hPa 0,0 l/m 0 min 0 min 0 W/m 29,0 km/h (5 Bft) 93,62 %
09.11.2023 20:34 8,2 C 7,2 C 3,9 C 93 % 999,5 hPa 0,0 l/m 0 min 0 min 0 W/m 25,7 km/h (4 Bft) 93,62 %
09.11.2023 20:36 8,2 C 7,2 C 3,9 C 93 % 999,6 hPa 0,0 l/m 0 min 2 min 0 W/m 16,1 km/h (3 Bft) 95,74 %
09.11.2023 20:38 8,1 C 7,2 C 3,9 C 93 % 999,6 hPa 0,0 l/m 0 min 2 min 0 W/m 29,0 km/h (5 Bft) 93,62 %
09.11.2023 20:40 8,1 C 6,7 C 3,9 C 93 % 999,6 hPa 0,0 l/m 0 min 2 min 0 W/m 19,3 km/h (3 Bft) 95,74 %
09.11.2023 20:42 8,1 C 6,7 C 3,9 C 93 % 999,6 hPa 0,0 l/m 0 min 2 min 0 W/m 19,3 km/h (3 Bft) 95,65 %
09.11.2023 20:44 8,1 C 6,7 C 3,9 C 93 % 999,6 hPa 0,0 l/m 0 min 2 min 0 W/m 32,2 km/h (5 Bft) 91,49 %
09.11.2023 20:46 8,0 C 6,7 C 3,9 C 93 % 999,4 hPa 0,0 l/m 0 min 2 min 0 W/m 29,0 km/h (5 Bft) 95,74 %
09.11.2023 20:48 8,0 C 6,7 C 3,9 C 93 % 999,3 hPa 0,2 l/m 0 min 2 min 0 W/m 29,0 km/h (5 Bft) 93,62 %
09.11.2023 20:50 7,9 C 6,7 C 3,9 C 93 % 999,2 hPa 0,0 l/m 0 min 2 min 0 W/m 16,1 km/h (3 Bft) 91,49 %
09.11.2023 20:52 7,9 C 6,7 C 3,9 C 93 % 999,2 hPa 0,0 l/m 0 min 2 min 0 W/m 16,1 km/h (3 Bft) 93,62 %
09.11.2023 20:54 7,9 C 6,7 C 3,9 C 93 % 999,2 hPa 0,0 l/m 0 min 2 min 0 W/m 19,3 km/h (3 Bft) 95,74 %
09.11.2023 20:56 7,8 C 6,7 C 3,9 C 93 % 999,3 hPa 0,0 l/m 0 min 2 min 0 W/m 6,4 km/h (2 Bft) 93,48 %
09.11.2023 20:58 7,8 C 6,7 C 3,9 C 93 % 999,2 hPa 0,0 l/m 0 min 0 min 0 W/m 6,4 km/h (2 Bft) 95,74 %
09.11.2023 21:00 7,8 C 6,7 C 3,9 C 93 % 999,1 hPa 0,0 l/m 0 min 0 min 0 W/m 9,7 km/h (2 Bft) 93,62 %
09.11.2023 21:02 7,8 C 6,7 C 3,9 C 93 % 999,1 hPa 0,0 l/m 0 min 0 min 0 W/m 22,5 km/h (4 Bft) 95,74 %
09.11.2023 21:04 7,8 C 6,7 C 3,3 C 93 % 999,1 hPa 0,0 l/m 0 min 0 min 0 W/m 25,7 km/h (4 Bft) 93,75 %
09.11.2023 21:06 7,8 C 6,7 C 3,9 C 93 % 999,1 hPa 0,0 l/m 0 min 0 min 0 W/m 16,1 km/h (3 Bft) 96,55 %
09.11.2023 21:08 7,8 C 6,7 C 3,3 C 93 % 999,2 hPa 0,0 l/m 0 min 0 min 0 W/m 19,3 km/h (3 Bft) 91,67 %
09.11.2023 21:10 7,8 C 6,7 C 3,9 C 93 % 999,2 hPa 0,0 l/m 0 min 0 min 0 W/m 9,7 km/h (2 Bft) 95,65 %
09.11.2023 21:12 7,8 C 6,7 C 3,9 C 94 % 999,2 hPa 0,0 l/m 0 min 0 min 0 W/m 12,9 km/h (3 Bft) 93,62 %
09.11.2023 21:14 7,8 C 6,7 C 3,9 C 94 % 999,4 hPa 0,0 l/m 0 min 0 min 0 W/m 25,7 km/h (4 Bft) 93,62 %
09.11.2023 21:16 7,7 C 7,2 C 3,3 C 94 % 999,4 hPa 0,0 l/m 0 min 0 min 0 W/m 22,5 km/h (4 Bft) 93,62 %
09.11.2023 21:18 7,7 C 6,7 C 3,9 C 94 % 999,4 hPa 0,0 l/m 0 min 0 min 0 W/m 16,1 km/h (3 Bft) 95,74 %
09.11.2023 21:20 7,7 C 6,7 C 3,9 C 94 % 999,4 hPa 0,0 l/m 0 min 0 min 0 W/m 12,9 km/h (3 Bft) 100,00 %
09.11.2023 21:22 7,7 C 7,2 C 3,9 C 94 % 999,4 hPa 0,0 l/m 0 min 0 min 0 W/m 19,3 km/h (3 Bft) 100,00 %
09.11.2023 21:24 7,7 C 7,2 C 3,9 C 94 % 999,4 hPa 0,0 l/m 0 min 0 min 0 W/m 9,7 km/h (2 Bft) 100,00 %
09.11.2023 21:26 7,7 C 7,2 C 3,3 C 94 % 999,4 hPa 0,0 l/m 0 min 0 min 0 W/m 19,3 km/h (3 Bft) 100,00 %
09.11.2023 21:28 7,7 C 7,2 C 3,9 C 94 % 999,4 hPa 0,0 l/m 0 min 0 min 0 W/m 9,7 km/h (2 Bft) 97,87 %
09.11.2023 21:30 7,7 C 7,2 C 3,9 C 94 % 999,4 hPa 0,0 l/m 0 min 0 min 0 W/m 16,1 km/h (3 Bft) 100,00 %
09.11.2023 21:32 7,7 C 7,2 C 3,9 C 94 % 999,3 hPa 0,0 l/m 0 min 0 min 0 W/m 16,1 km/h (3 Bft) 100,00 %
09.11.2023 21:34 7,7 C 7,2 C 3,9 C 94 % 999,4 hPa 0,0 l/m 0 min 0 min 0 W/m 12,9 km/h (3 Bft) 100,00 %
09.11.2023 21:36 7,7 C 7,2 C 3,9 C 94 % 999,4 hPa 0,0 l/m 0 min 0 min 0 W/m 12,9 km/h (3 Bft) 95,65 %
09.11.2023 21:38 7,7 C 7,2 C 3,3 C 94 % 999,4 hPa 0,0 l/m 0 min 0 min 0 W/m 22,5 km/h (4 Bft) 100,00 %
09.11.2023 21:40 7,7 C 7,2 C 3,9 C 94 % 999,4 hPa 0,0 l/m 0 min 0 min 0 W/m 19,3 km/h (3 Bft) 100,00 %
09.11.2023 21:42 7,7 C 7,2 C 3,3 C 94 % 999,5 hPa 0,0 l/m 0 min 0 min 0 W/m 19,3 km/h (3 Bft) 100,00 %
09.11.2023 21:44 7,7 C 7,2 C 3,3 C 94 % 999,4 hPa 0,0 l/m 0 min 0 min 0 W/m 12,9 km/h (3 Bft) 100,00 %
09.11.2023 21:46 7,7 C 7,2 C 3,3 C 94 % 999,4 hPa 0,0 l/m 0 min 0 min 0 W/m 19,3 km/h (3 Bft) 100,00 %
09.11.2023 21:48 7,7 C 7,2 C 3,3 C 94 % 999,4 hPa 0,0 l/m 0 min 0 min 0 W/m 22,5 km/h (4 Bft) 97,87 %
09.11.2023 21:50 7,7 C 7,2 C 3,3 C 94 % 999,5 hPa 0,0 l/m 0 min 0 min 0 W/m 16,1 km/h (3 Bft) 100,00 %
09.11.2023 21:52 7,7 C 7,2 C 3,3 C 94 % 999,4 hPa 0,0 l/m 0 min 0 min 0 W/m 16,1 km/h (3 Bft) 97,87 %
09.11.2023 21:54 7,7 C 7,2 C 3,3 C 94 % 999,5 hPa 0,0 l/m 0 min 0 min 0 W/m 12,9 km/h (3 Bft) 100,00 %
09.11.2023 21:56 7,7 C 7,2 C 3,3 C 94 % 999,5 hPa 0,0 l/m 0 min 0 min 0 W/m 19,3 km/h (3 Bft) 100,00 %
09.11.2023 21:58 7,7 C 7,2 C 3,3 C 93 % 999,6 hPa 0,0 l/m 0 min 0 min 0 W/m 16,1 km/h (3 Bft) 100,00 %
09.11.2023 22:00 7,7 C 7,2 C 3,3 C 93 % 999,4 hPa 0,0 l/m 0 min 0 min 0 W/m 12,9 km/h (3 Bft) 97,87 %
09.11.2023 22:02 7,7 C 7,2 C 3,3 C 93 % 999,4 hPa 0,0 l/m 0 min 0 min 0 W/m 9,7 km/h (2 Bft) 93,48 %
09.11.2023 22:04 7,7 C 7,2 C 3,3 C 93 % 999,5 hPa 0,0 l/m 0 min 0 min 0 W/m 12,9 km/h (3 Bft) 100,00 %
09.11.2023 22:06 7,7 C 7,2 C 3,3 C 93 % 999,5 hPa 0,0 l/m 0 min 0 min 0 W/m 12,9 km/h (3 Bft) 96,83 %
09.11.2023 22:08 7,7 C 7,2 C 3,3 C 93 % 999,5 hPa 0,0 l/m 0 min 0 min 0 W/m 16,1 km/h (3 Bft) 100,00 %
09.11.2023 22:10 7,6 C 7,2 C 3,3 C 93 % 999,5 hPa 0,0 l/m 0 min 0 min 0 W/m 16,1 km/h (3 Bft) 100,00 %
09.11.2023 22:12 7,6 C 7,2 C 3,3 C 93 % 999,6 hPa 0,0 l/m 0 min 0 min 0 W/m 25,7 km/h (4 Bft) 100,00 %
09.11.2023 22:14 7,6 C 7,2 C 3,3 C 93 % 999,6 hPa 0,0 l/m 0 min 0 min 0 W/m 19,3 km/h (3 Bft) 100,00 %
09.11.2023 22:16 7,6 C 7,2 C 3,3 C 93 % 999,6 hPa 0,0 l/m 0 min 0 min 0 W/m 35,4 km/h (5 Bft) 100,00 %
09.11.2023 22:18 7,6 C 7,2 C 3,3 C 93 % 999,6 hPa 0,0 l/m 0 min 0 min 0 W/m 19,3 km/h (3 Bft) 97,87 %
09.11.2023 22:20 7,6 C 7,2 C 3,3 C 92 % 999,6 hPa 0,0 l/m 0 min 0 min 0 W/m 22,5 km/h (4 Bft) 100,00 %
09.11.2023 22:22 7,6 C 7,2 C 3,3 C 92 % 999,6 hPa 0,0 l/m 0 min 0 min 0 W/m 19,3 km/h (3 Bft) 100,00 %
09.11.2023 22:24 7,6 C 6,7 C 3,3 C 92 % 999,6 hPa 0,0 l/m 0 min 0 min 0 W/m 19,3 km/h (3 Bft) 100,00 %
09.11.2023 22:26 7,6 C 7,2 C 3,3 C 92 % 999,6 hPa 0,0 l/m 0 min 0 min 0 W/m 22,5 km/h (4 Bft) 100,00 %
09.11.2023 22:28 7,6 C 6,7 C 3,3 C 92 % 999,5 hPa 0,0 l/m 0 min 0 min 0 W/m 19,3 km/h (3 Bft) 97,83 %
09.11.2023 22:30 7,6 C 6,7 C 3,3 C 92 % 999,6 hPa 0,0 l/m 0 min 0 min 0 W/m 25,7 km/h (4 Bft) 97,87 %
09.11.2023 22:32 7,6 C 6,7 C 3,3 C 92 % 999,6 hPa 0,0 l/m 0 min 0 min 0 W/m 16,1 km/h (3 Bft) 100,00 %
09.11.2023 22:34 7,6 C 6,7 C 3,3 C 92 % 999,5 hPa 0,0 l/m 0 min 0 min 0 W/m 19,3 km/h (3 Bft) 95,74 %
09.11.2023 22:36 7,6 C 6,7 C 3,3 C 92 % 999,6 hPa 0,0 l/m 0 min 0 min 0 W/m 12,9 km/h (3 Bft) 93,62 %
09.11.2023 22:38 7,6 C 6,7 C 3,3 C 92 % 999,6 hPa 0,0 l/m 0 min 0 min 0 W/m 19,3 km/h (3 Bft) 95,74 %
09.11.2023 22:40 7,6 C 6,7 C 3,3 C 92 % 999,6 hPa 0,0 l/m 0 min 0 min 0 W/m 22,5 km/h (4 Bft) 93,62 %
09.11.2023 22:42 7,6 C 6,7 C 3,3 C 92 % 999,5 hPa 0,0 l/m 0 min 0 min 0 W/m 29,0 km/h (5 Bft) 93,48 %
09.11.2023 22:44 7,6 C 6,7 C 3,3 C 92 % 999,5 hPa 0,0 l/m 0 min 0 min 0 W/m 16,1 km/h (3 Bft) 95,74 %
09.11.2023 22:46 7,6 C 6,7 C 3,3 C 92 % 999,5 hPa 0,0 l/m 0 min 0 min 0 W/m 32,2 km/h (5 Bft) 93,62 %
09.11.2023 22:48 7,6 C 6,7 C 3,3 C 92 % 999,5 hPa 0,0 l/m 0 min 0 min 0 W/m 25,7 km/h (4 Bft) 95,74 %
09.11.2023 22:50 7,6 C 6,7 C 3,3 C 92 % 999,4 hPa 0,0 l/m 0 min 0 min 0 W/m 19,3 km/h (3 Bft) 93,62 %
09.11.2023 22:52 7,5 C 6,7 C 3,3 C 92 % 999,4 hPa 0,0 l/m 0 min 0 min 0 W/m 22,5 km/h (4 Bft) 95,74 %
09.11.2023 22:54 7,5 C 6,7 C 3,3 C 92 % 999,5 hPa 0,0 l/m 0 min 0 min 0 W/m 19,3 km/h (3 Bft) 95,74 %
09.11.2023 22:56 7,5 C 6,7 C 3,3 C 92 % 999,5 hPa 0,0 l/m 0 min 0 min 0 W/m 25,7 km/h (4 Bft) 95,65 %
09.11.2023 22:58 7,4 C 6,7 C 3,3 C 92 % 999,4 hPa 0,0 l/m 0 min 0 min 0 W/m 16,1 km/h (3 Bft) 95,74 %
09.11.2023 23:00 7,4 C 6,7 C 2,8 C 92 % 999,4 hPa 0,0 l/m 0 min 0 min 0 W/m 25,7 km/h (4 Bft) 95,74 %
09.11.2023 23:02 7,4 C 6,7 C 2,8 C 92 % 999,3 hPa 0,0 l/m 0 min 0 min 0 W/m 12,9 km/h (3 Bft) 95,74 %
09.11.2023 23:04 7,4 C 6,7 C 2,8 C 92 % 999,3 hPa 0,0 l/m 0 min 0 min 0 W/m 12,9 km/h (3 Bft) 97,87 %
09.11.2023 23:06 7,3 C 6,7 C 2,8 C 92 % 999,4 hPa 0,0 l/m 0 min 0 min 0 W/m 16,1 km/h (3 Bft) 96,55 %
09.11.2023 23:08 7,3 C 6,7 C 2,8 C 92 % 999,4 hPa 0,0 l/m 0 min 0 min 0 W/m 12,9 km/h (3 Bft) 97,22 %
09.11.2023 23:10 7,3 C 6,7 C 2,8 C 92 % 999,3 hPa 0,0 l/m 0 min 0 min 0 W/m 12,9 km/h (3 Bft) 100,00 %
09.11.2023 23:12 7,3 C 6,7 C 3,3 C 92 % 999,3 hPa 0,0 l/m 0 min 0 min 0 W/m 9,7 km/h (2 Bft) 100,00 %
09.11.2023 23:14 7,3 C 6,7 C 3,3 C 92 % 999,3 hPa 0,0 l/m 0 min 0 min 0 W/m 3,2 km/h (1 Bft) 100,00 %
09.11.2023 23:16 7,3 C 6,7 C 3,3 C 92 % 999,3 hPa 0,0 l/m 0 min 0 min 0 W/m 12,9 km/h (3 Bft) 100,00 %
09.11.2023 23:18 7,3 C 6,7 C 3,3 C 92 % 999,2 hPa 0,0 l/m 0 min 0 min 0 W/m 12,9 km/h (3 Bft) 100,00 %
09.11.2023 23:20 7,3 C 6,7 C 3,3 C 92 % 999,2 hPa 0,0 l/m 0 min 0 min 0 W/m 12,9 km/h (3 Bft) 100,00 %
09.11.2023 23:22 7,3 C 6,7 C 3,3 C 92 % 999,2 hPa 0,0 l/m 0 min 0 min 0 W/m 16,1 km/h (3 Bft) 100,00 %
09.11.2023 23:24 7,3 C 6,7 C 3,3 C 92 % 999,2 hPa 0,0 l/m 0 min 0 min 0 W/m 16,1 km/h (3 Bft) 100,00 %
09.11.2023 23:26 7,3 C 6,7 C 3,3 C 92 % 999,1 hPa 0,0 l/m 0 min 0 min 0 W/m 16,1 km/h (3 Bft) 100,00 %
09.11.2023 23:28 7,3 C 6,7 C 3,3 C 92 % 999,1 hPa 0,0 l/m 0 min 0 min 0 W/m 6,4 km/h (2 Bft) 100,00 %
09.11.2023 23:30 7,3 C 6,7 C 3,3 C 92 % 999,2 hPa 0,0 l/m 0 min 0 min 0 W/m 3,2 km/h (1 Bft) 100,00 %
09.11.2023 23:32 7,3 C 6,7 C 3,3 C 92 % 999,1 hPa 0,0 l/m 0 min 0 min 0 W/m 3,2 km/h (1 Bft) 100,00 %
09.11.2023 23:34 7,3 C 6,7 C 3,3 C 92 % 999,2 hPa 0,0 l/m 0 min 0 min 0 W/m 6,4 km/h (2 Bft) 100,00 %
09.11.2023 23:36 7,3 C 6,7 C 3,3 C 92 % 999,2 hPa 0,0 l/m 0 min 0 min 0 W/m 16,1 km/h (3 Bft) 100,00 %
09.11.2023 23:38 7,2 C 6,7 C 3,3 C 92 % 999,1 hPa 0,0 l/m 0 min 0 min 0 W/m 16,1 km/h (3 Bft) 97,87 %
09.11.2023 23:40 7,2 C 6,7 C 3,3 C 92 % 999,1 hPa 0,0 l/m 0 min 0 min 0 W/m 12,9 km/h (3 Bft) 100,00 %
09.11.2023 23:42 7,2 C 6,7 C 3,3 C 92 % 999,0 hPa 0,0 l/m 0 min 0 min 0 W/m 9,7 km/h (2 Bft) 100,00 %
09.11.2023 23:44 7,2 C 6,7 C 2,8 C 92 % 999,0 hPa 0,0 l/m 0 min 0 min 0 W/m 12,9 km/h (3 Bft) 97,87 %
09.11.2023 23:46 7,2 C 6,1 C 2,8 C 92 % 999,0 hPa 0,0 l/m 0 min 0 min 0 W/m 19,3 km/h (3 Bft) 100,00 %
09.11.2023 23:48 7,2 C 6,1 C 2,8 C 92 % 998,9 hPa 0,0 l/m 0 min 0 min 0 W/m 22,5 km/h (4 Bft) 97,87 %
09.11.2023 23:50 7,1 C 6,1 C 2,8 C 92 % 998,9 hPa 0,0 l/m 0 min 0 min 0 W/m 9,7 km/h (2 Bft) 97,83 %
09.11.2023 23:52 7,1 C 6,1 C 2,8 C 92 % 999,0 hPa 0,0 l/m 0 min 0 min 0 W/m 12,9 km/h (3 Bft) 93,62 %
09.11.2023 23:54 7,1 C 6,1 C 2,8 C 92 % 998,9 hPa 0,0 l/m 0 min 0 min 0 W/m 9,7 km/h (2 Bft) 95,74 %
09.11.2023 23:56 7,1 C 6,1 C 2,8 C 92 % 998,9 hPa 0,0 l/m 0 min 0 min 0 W/m 6,4 km/h (2 Bft) 97,87 %
09.11.2023 23:58 7,0 C 6,1 C 2,8 C 92 % 998,9 hPa 0,0 l/m 0 min 0 min 0 W/m 3,2 km/h (1 Bft) 95,74 %
_ Min-Zeit 23:58 23:46 23:00 14:06 19:44 - - - - 01:54 00:02
Minimum _ 7,0 C 6,1 C 2,8 C 82 % 998,8 hPa - - - - 3,2 km/h (1 Bft) 14,29 %
_ Max-Zeit 14:46 13:56 14:44 03:06 00:00 00:04 13:04 02:04 13:50 19:40 01:12
Maximum _ 11,7 C 12,8 C 7,8 C 98 % 1005,9 hPa 0,2 l/m 2 min 5 min 389 W/m 51,5 km/h
SW (7 Bft)
100,00 %
Durchschnitt _ 9,8 C 9,2 C 5,6 C 92 % 1001,9 hPa #5,8 l/m #2:04 h #4:58 h 106 W/m 15,9 km/h (3 Bft) 97,04 %
© 2023 W. Hausmann